Wetterdaten: Sonntag, 13.08.2017
Datum Zeit Temp. Aussen Temp. o. S. +5cm Feuchte Auss BlattFeu 1 Luftdruck Regen Sonnenschein Regendauer Solar Windben Empfang
13.08.2017 00:00 16,7 C 16,1 C 15,0 C 97 % 15 lf 1016,2 hPa 0,0 l/m 0 min 0 min 0 W/m 4,2 km/h (1 Bft) 100,00 %
13.08.2017 00:02 16,7 C 16,1 C 15,0 C 97 % 15 lf 1016,1 hPa 0,0 l/m 0 min 0 min 0 W/m 6,3 km/h (2 Bft) 95,65 %
13.08.2017 00:04 16,7 C 16,1 C 15,0 C 98 % 15 lf 1016,1 hPa 0,0 l/m 0 min 0 min 0 W/m 6,3 km/h (2 Bft) 97,83 %
13.08.2017 00:07 16,6 C 16,1 C 15,0 C 98 % 15 lf 1016,1 hPa 0,0 l/m 0 min 0 min 0 W/m 6,3 km/h (2 Bft) 97,83 %
13.08.2017 00:08 16,6 C 16,1 C 15,0 C 98 % 15 lf 1016,1 hPa 0,0 l/m 0 min 0 min 0 W/m 6,3 km/h (2 Bft) 98,86 %
13.08.2017 00:10 16,6 C 16,1 C 15,0 C 98 % 15 lf 1016,2 hPa 0,0 l/m 0 min 0 min 0 W/m 4,2 km/h (1 Bft) 100,00 %
13.08.2017 00:12 16,6 C 16,1 C 15,0 C 98 % 15 lf 1016,0 hPa 0,0 l/m 0 min 0 min 0 W/m 6,3 km/h (2 Bft) 100,00 %
13.08.2017 00:14 16,6 C 16,1 C 15,0 C 98 % 15 lf 1015,9 hPa 0,0 l/m 0 min 0 min 0 W/m 6,3 km/h (2 Bft) 97,87 %
13.08.2017 00:16 16,6 C 16,1 C 15,0 C 98 % 15 lf 1015,9 hPa 0,0 l/m 0 min 0 min 0 W/m 6,3 km/h (2 Bft) 97,87 %
13.08.2017 00:18 16,6 C 16,1 C 15,0 C 98 % 15 lf 1015,9 hPa 0,0 l/m 0 min 0 min 0 W/m 8,4 km/h (2 Bft) 97,83 %
13.08.2017 00:20 16,6 C 16,1 C 15,0 C 98 % 15 lf 1016,0 hPa 0,0 l/m 0 min 0 min 0 W/m 8,4 km/h (2 Bft) 100,00 %
13.08.2017 00:22 16,6 C 16,1 C 15,0 C 97 % 15 lf 1016,1 hPa 0,0 l/m 0 min 0 min 0 W/m 6,3 km/h (2 Bft) 97,87 %
13.08.2017 00:24 16,6 C 16,1 C 15,0 C 97 % 15 lf 1016,1 hPa 0,0 l/m 0 min 0 min 0 W/m 8,4 km/h (2 Bft) 100,00 %
13.08.2017 00:26 16,6 C 16,1 C 15,0 C 97 % 15 lf 1016,2 hPa 0,0 l/m 0 min 0 min 0 W/m 8,4 km/h (2 Bft) 95,74 %
13.08.2017 00:28 16,6 C 16,1 C 15,0 C 97 % 15 lf 1016,3 hPa 0,0 l/m 0 min 0 min 0 W/m 10,5 km/h (2 Bft) 97,87 %
13.08.2017 00:30 16,6 C 16,1 C 15,0 C 97 % 15 lf 1016,3 hPa 0,0 l/m 0 min 0 min 0 W/m 6,3 km/h (2 Bft) 95,65 %
13.08.2017 00:32 16,6 C 16,1 C 15,0 C 98 % 15 lf 1016,4 hPa 0,0 l/m 0 min 0 min 0 W/m 6,3 km/h (2 Bft) 95,74 %
13.08.2017 00:34 16,6 C 16,1 C 15,0 C 98 % 15 lf 1016,4 hPa 0,0 l/m 0 min 0 min 0 W/m 8,4 km/h (2 Bft) 95,74 %
13.08.2017 00:36 16,6 C 16,1 C 15,0 C 98 % 15 lf 1016,3 hPa 0,0 l/m 0 min 0 min 0 W/m 8,4 km/h (2 Bft) 97,87 %
13.08.2017 00:38 16,7 C 16,1 C 15,0 C 98 % 15 lf 1016,3 hPa 0,0 l/m 0 min 0 min 0 W/m 8,4 km/h (2 Bft) 97,87 %
13.08.2017 00:40 16,7 C 16,1 C 15,0 C 98 % 15 lf 1016,3 hPa 0,0 l/m 0 min 0 min 0 W/m 6,3 km/h (2 Bft) 93,62 %
13.08.2017 00:42 16,7 C 16,1 C 15,0 C 98 % 15 lf 1016,3 hPa 0,0 l/m 0 min 0 min 0 W/m 4,2 km/h (1 Bft) 95,65 %
13.08.2017 00:44 16,7 C 16,1 C 15,0 C 98 % 15 lf 1016,4 hPa 0,0 l/m 0 min 0 min 0 W/m 8,4 km/h (2 Bft) 95,74 %
13.08.2017 00:46 16,7 C 16,1 C 15,0 C 98 % 15 lf 1016,4 hPa 0,0 l/m 0 min 0 min 0 W/m 6,3 km/h (2 Bft) 97,87 %
13.08.2017 00:48 16,7 C 16,1 C 15,0 C 98 % 15 lf 1016,4 hPa 0,0 l/m 0 min 0 min 0 W/m 10,5 km/h (2 Bft) 97,87 %
13.08.2017 00:50 16,7 C 16,1 C 15,0 C 98 % 15 lf 1016,4 hPa 0,0 l/m 0 min 0 min 0 W/m 6,3 km/h (2 Bft) 93,62 %
13.08.2017 00:52 16,7 C 16,1 C 15,0 C 98 % 15 lf 1016,4 hPa 0,0 l/m 0 min 0 min 0 W/m 4,2 km/h (1 Bft) 93,62 %
13.08.2017 00:54 16,7 C 16,1 C 15,0 C 98 % 15 lf 1016,5 hPa 0,0 l/m 0 min 0 min 0 W/m 6,3 km/h (2 Bft) 95,65 %
13.08.2017 00:56 16,6 C 16,1 C 15,0 C 98 % 15 lf 1016,5 hPa 0,0 l/m 0 min 0 min 0 W/m 4,2 km/h (1 Bft) 93,62 %
13.08.2017 00:58 16,6 C 16,1 C 15,0 C 98 % 15 lf 1016,5 hPa 0,0 l/m 0 min 0 min 0 W/m 6,3 km/h (2 Bft) 91,49 %
13.08.2017 01:00 16,6 C 16,1 C 15,0 C 98 % 15 lf 1016,4 hPa 0,0 l/m 0 min 0 min 0 W/m 8,4 km/h (2 Bft) 93,62 %
13.08.2017 01:02 16,6 C 16,1 C 15,0 C 98 % 15 lf 1016,4 hPa 0,0 l/m 0 min 0 min 0 W/m 4,2 km/h (1 Bft) 95,74 %
13.08.2017 01:04 16,6 C 16,1 C 15,0 C 98 % 15 lf 1016,4 hPa 0,0 l/m 0 min 0 min 0 W/m 0,0 km/h (0 Bft) 95,74 %
13.08.2017 01:06 16,6 C 16,1 C 15,0 C 98 % 15 lf 1016,4 hPa 0,0 l/m 0 min 0 min 0 W/m 0,0 km/h (0 Bft) 95,65 %
13.08.2017 01:08 16,6 C 16,1 C 15,0 C 98 % 15 lf 1016,4 hPa 0,0 l/m 0 min 0 min 0 W/m 6,3 km/h (2 Bft) 93,62 %
13.08.2017 01:10 16,6 C 15,6 C 15,0 C 98 % 15 lf 1016,3 hPa 0,0 l/m 0 min 0 min 0 W/m 6,3 km/h (2 Bft) 97,87 %
13.08.2017 01:12 16,6 C 16,1 C 15,0 C 98 % 15 lf 1016,3 hPa 0,0 l/m 0 min 0 min 0 W/m 6,3 km/h (2 Bft) 93,62 %
13.08.2017 01:14 16,6 C 16,1 C 15,0 C 98 % 15 lf 1016,3 hPa 0,0 l/m 0 min 0 min 0 W/m 6,3 km/h (2 Bft) 95,74 %
13.08.2017 01:16 16,6 C 16,1 C 15,0 C 98 % 15 lf 1016,4 hPa 0,0 l/m 0 min 0 min 0 W/m 6,3 km/h (2 Bft) 94,23 %
13.08.2017 01:18 16,6 C 16,1 C 15,0 C 98 % 15 lf 1016,3 hPa 0,0 l/m 0 min 0 min 0 W/m 6,3 km/h (2 Bft) 95,12 %
13.08.2017 01:20 16,6 C 16,1 C 15,0 C 98 % 15 lf 1016,3 hPa 0,0 l/m 0 min 0 min 0 W/m 4,2 km/h (1 Bft) 95,74 %
13.08.2017 01:22 16,6 C 16,1 C 15,0 C 98 % 15 lf 1016,3 hPa 0,0 l/m 0 min 0 min 0 W/m 8,4 km/h (2 Bft) 93,62 %
13.08.2017 01:24 16,6 C 16,1 C 15,0 C 98 % 15 lf 1016,4 hPa 0,0 l/m 0 min 0 min 0 W/m 8,4 km/h (2 Bft) 91,49 %
13.08.2017 01:26 16,6 C 16,1 C 15,0 C 98 % 15 lf 1016,4 hPa 0,0 l/m 0 min 0 min 0 W/m 8,4 km/h (2 Bft) 97,87 %
13.08.2017 01:28 16,6 C 16,1 C 15,0 C 98 % 15 lf 1016,4 hPa 0,0 l/m 0 min 0 min 0 W/m 8,4 km/h (2 Bft) 95,65 %
13.08.2017 01:30 16,6 C 16,1 C 15,0 C 98 % 15 lf 1016,4 hPa 0,0 l/m 0 min 0 min 0 W/m 4,2 km/h (1 Bft) 95,74 %
13.08.2017 01:32 16,6 C 16,1 C 15,0 C 98 % 15 lf 1016,4 hPa 0,0 l/m 0 min 0 min 0 W/m 6,3 km/h (2 Bft) 95,24 %
13.08.2017 01:34 16,6 C 16,1 C 15,0 C 98 % 15 lf 1016,4 hPa 0,0 l/m 0 min 0 min 0 W/m 2,1 km/h (1 Bft) 95,74 %
13.08.2017 01:36 16,6 C 16,1 C 15,0 C 98 % 15 lf 1016,4 hPa 0,0 l/m 0 min 0 min 0 W/m 4,2 km/h (1 Bft) 93,62 %
13.08.2017 01:38 16,5 C 15,6 C 15,0 C 98 % 15 lf 1016,3 hPa 0,0 l/m 0 min 0 min 0 W/m 4,2 km/h (1 Bft) 100,00 %
13.08.2017 01:40 16,5 C 15,6 C 15,0 C 98 % 15 lf 1016,4 hPa 0,0 l/m 0 min 0 min 0 W/m 4,2 km/h (1 Bft) 95,74 %
13.08.2017 01:42 16,5 C 15,6 C 15,0 C 98 % 15 lf 1016,4 hPa 0,0 l/m 0 min 0 min 0 W/m 4,2 km/h (1 Bft) 93,62 %
13.08.2017 01:44 16,5 C 15,6 C 15,0 C 98 % 15 lf 1016,4 hPa 0,0 l/m 0 min 0 min 0 W/m 4,2 km/h (1 Bft) 93,62 %
13.08.2017 01:46 16,5 C 16,1 C 15,0 C 98 % 15 lf 1016,3 hPa 0,0 l/m 0 min 0 min 0 W/m 4,2 km/h (1 Bft) 97,87 %
13.08.2017 01:48 16,5 C 16,1 C 15,0 C 98 % 15 lf 1016,4 hPa 0,0 l/m 0 min 0 min 0 W/m 2,1 km/h (1 Bft) 93,62 %
13.08.2017 01:50 16,5 C 15,6 C 15,0 C 98 % 15 lf 1016,3 hPa 0,0 l/m 0 min 0 min 0 W/m 4,2 km/h (1 Bft) 97,87 %
13.08.2017 01:52 16,5 C 15,6 C 15,0 C 98 % 15 lf 1016,4 hPa 0,0 l/m 0 min 0 min 0 W/m 2,1 km/h (1 Bft) 93,48 %
13.08.2017 01:54 16,5 C 15,6 C 15,0 C 98 % 15 lf 1016,4 hPa 0,0 l/m 0 min 0 min 0 W/m 4,2 km/h (1 Bft) 95,74 %
13.08.2017 01:56 16,5 C 16,1 C 15,0 C 98 % 15 lf 1016,4 hPa 0,0 l/m 0 min 0 min 0 W/m 4,2 km/h (1 Bft) 97,87 %
13.08.2017 01:58 16,5 C 16,1 C 15,0 C 98 % 15 lf 1016,4 hPa 0,0 l/m 0 min 0 min 0 W/m 4,2 km/h (1 Bft) 97,87 %
13.08.2017 02:00 16,5 C 16,1 C 15,0 C 98 % 15 lf 1016,4 hPa 0,0 l/m 0 min 0 min 0 W/m 4,2 km/h (1 Bft) 95,74 %
13.08.2017 02:02 16,5 C 16,1 C 15,0 C 98 % 15 lf 1016,4 hPa 0,0 l/m 0 min 0 min 0 W/m 2,1 km/h (1 Bft) 97,92 %
13.08.2017 02:04 16,5 C 16,1 C 15,0 C 98 % 15 lf 1016,4 hPa 0,0 l/m 0 min 0 min 0 W/m 2,1 km/h (1 Bft) 97,83 %
13.08.2017 02:06 16,5 C 16,1 C 15,0 C 98 % 15 lf 1016,4 hPa 0,0 l/m 0 min 0 min 0 W/m 2,1 km/h (1 Bft) 95,74 %
13.08.2017 02:08 16,5 C 16,1 C 15,0 C 98 % 15 lf 1016,4 hPa 0,0 l/m 0 min 0 min 0 W/m 4,2 km/h (1 Bft) 95,74 %
13.08.2017 02:10 16,5 C 16,1 C 15,0 C 98 % 15 lf 1016,4 hPa 0,0 l/m 0 min 0 min 0 W/m 6,3 km/h (2 Bft) 95,74 %
13.08.2017 02:12 16,5 C 16,1 C 15,0 C 98 % 15 lf 1016,4 hPa 0,0 l/m 0 min 0 min 0 W/m 4,2 km/h (1 Bft) 95,83 %
13.08.2017 02:14 16,5 C 16,1 C 15,0 C 98 % 15 lf 1016,4 hPa 0,0 l/m 0 min 0 min 0 W/m 6,3 km/h (2 Bft) 95,74 %
13.08.2017 02:16 16,5 C 16,1 C 15,0 C 98 % 15 lf 1016,4 hPa 0,0 l/m 0 min 0 min 0 W/m 4,2 km/h (1 Bft) 97,83 %
13.08.2017 02:18 16,5 C 16,1 C 15,0 C 98 % 15 lf 1016,4 hPa 0,0 l/m 0 min 0 min 0 W/m 4,2 km/h (1 Bft) 95,74 %
13.08.2017 02:20 16,5 C 16,1 C 15,0 C 98 % 15 lf 1016,4 hPa 0,0 l/m 0 min 0 min 0 W/m 4,2 km/h (1 Bft) 95,74 %
13.08.2017 02:22 16,5 C 16,1 C 15,0 C 98 % 15 lf 1016,4 hPa 0,0 l/m 0 min 0 min 0 W/m 6,3 km/h (2 Bft) 95,74 %
13.08.2017 02:24 16,5 C 16,1 C 15,0 C 98 % 15 lf 1016,4 hPa 0,0 l/m 0 min 0 min 0 W/m 4,2 km/h (1 Bft) 95,74 %
13.08.2017 02:26 16,5 C 16,1 C 15,0 C 98 % 15 lf 1016,4 hPa 0,0 l/m 0 min 0 min 0 W/m 6,3 km/h (2 Bft) 93,48 %
13.08.2017 02:28 16,5 C 16,1 C 15,0 C 98 % 15 lf 1016,4 hPa 0,0 l/m 0 min 0 min 0 W/m 4,2 km/h (1 Bft) 93,62 %
13.08.2017 02:30 16,5 C 16,1 C 15,0 C 98 % 15 lf 1016,4 hPa 0,0 l/m 0 min 0 min 0 W/m 6,3 km/h (2 Bft) 95,74 %
13.08.2017 02:32 16,6 C 16,1 C 15,0 C 98 % 15 lf 1016,4 hPa 0,0 l/m 0 min 0 min 0 W/m 8,4 km/h (2 Bft) 95,83 %
13.08.2017 02:34 16,6 C 16,1 C 15,0 C 98 % 15 lf 1016,4 hPa 0,0 l/m 0 min 0 min 0 W/m 8,4 km/h (2 Bft) 95,74 %
13.08.2017 02:36 16,6 C 16,1 C 15,0 C 98 % 15 lf 1016,4 hPa 0,0 l/m 0 min 0 min 0 W/m 8,4 km/h (2 Bft) 93,62 %
13.08.2017 02:38 16,6 C 16,1 C 15,0 C 98 % 15 lf 1016,4 hPa 0,0 l/m 0 min 0 min 0 W/m 8,4 km/h (2 Bft) 97,83 %
13.08.2017 02:40 16,6 C 16,1 C 15,0 C 98 % 15 lf 1016,4 hPa 0,0 l/m 0 min 0 min 0 W/m 6,3 km/h (2 Bft) 95,74 %
13.08.2017 02:42 16,6 C 16,1 C 15,0 C 98 % 15 lf 1016,4 hPa 0,0 l/m 0 min 0 min 0 W/m 6,3 km/h (2 Bft) 95,74 %
13.08.2017 02:44 16,6 C 16,1 C 15,0 C 98 % 15 lf 1016,3 hPa 0,0 l/m 0 min 2 min 0 W/m 6,3 km/h (2 Bft) 93,62 %
13.08.2017 02:46 16,6 C 16,1 C 15,0 C 98 % 15 lf 1016,3 hPa 0,0 l/m 0 min 2 min 0 W/m 6,3 km/h (2 Bft) 95,74 %
13.08.2017 02:48 16,6 C 16,1 C 15,0 C 98 % 15 lf 1016,4 hPa 0,0 l/m 0 min 2 min 0 W/m 8,4 km/h (2 Bft) 95,74 %
13.08.2017 02:50 16,6 C 16,1 C 15,0 C 98 % 15 lf 1016,4 hPa 0,0 l/m 0 min 2 min 0 W/m 8,4 km/h (2 Bft) 95,65 %
13.08.2017 02:52 16,6 C 16,1 C 15,0 C 98 % 15 lf 1016,4 hPa 0,0 l/m 0 min 0 min 0 W/m 6,3 km/h (2 Bft) 95,83 %
13.08.2017 02:54 16,6 C 16,1 C 15,0 C 98 % 15 lf 1016,4 hPa 0,0 l/m 0 min 0 min 0 W/m 6,3 km/h (2 Bft) 95,74 %
13.08.2017 02:56 16,6 C 16,1 C 15,0 C 98 % 15 lf 1016,4 hPa 0,0 l/m 0 min 2 min 0 W/m 6,3 km/h (2 Bft) 95,74 %
13.08.2017 02:58 16,6 C 16,1 C 15,0 C 98 % 15 lf 1016,3 hPa 0,0 l/m 0 min 0 min 0 W/m 4,2 km/h (1 Bft) 100,00 %
13.08.2017 03:00 16,6 C 16,1 C 15,0 C 98 % 15 lf 1016,4 hPa 0,0 l/m 0 min 0 min 0 W/m 6,3 km/h (2 Bft) 100,00 %
13.08.2017 03:02 16,6 C 16,1 C 15,0 C 98 % 15 lf 1016,4 hPa 0,0 l/m 0 min 2 min 0 W/m 6,3 km/h (2 Bft) 100,00 %
13.08.2017 03:04 16,6 C 16,1 C 15,0 C 98 % 15 lf 1016,4 hPa 0,0 l/m 0 min 2 min 0 W/m 6,3 km/h (2 Bft) 100,00 %
13.08.2017 03:06 16,5 C 16,1 C 15,0 C 98 % 15 lf 1016,4 hPa 0,0 l/m 0 min 2 min 0 W/m 10,5 km/h (2 Bft) 93,62 %
13.08.2017 03:08 16,5 C 16,1 C 15,0 C 98 % 15 lf 1016,4 hPa 0,0 l/m 0 min 0 min 0 W/m 6,3 km/h (2 Bft) 97,87 %
13.08.2017 03:10 16,5 C 16,1 C 15,0 C 98 % 15 lf 1016,4 hPa 0,0 l/m 0 min 0 min 0 W/m 6,3 km/h (2 Bft) 97,87 %
13.08.2017 03:12 16,5 C 16,1 C 15,0 C 98 % 15 lf 1016,4 hPa 0,2 l/m 0 min 0 min 0 W/m 10,5 km/h (2 Bft) 100,00 %
13.08.2017 03:14 16,5 C 15,6 C 15,0 C 98 % 15 lf 1016,4 hPa 0,0 l/m 0 min 0 min 0 W/m 8,4 km/h (2 Bft) 100,00 %
13.08.2017 03:16 16,5 C 15,6 C 15,0 C 98 % 15 lf 1016,3 hPa 0,0 l/m 0 min 0 min 0 W/m 4,2 km/h (1 Bft) 97,87 %
13.08.2017 03:18 16,5 C 15,6 C 15,0 C 98 % 15 lf 1016,3 hPa 0,0 l/m 0 min 0 min 0 W/m 8,4 km/h (2 Bft) 97,87 %
13.08.2017 03:20 16,5 C 16,1 C 15,0 C 98 % 15 lf 1016,3 hPa 0,0 l/m 0 min 0 min 0 W/m 8,4 km/h (2 Bft) 100,00 %
13.08.2017 03:22 16,5 C 16,1 C 15,0 C 98 % 15 lf 1016,4 hPa 0,0 l/m 0 min 0 min 0 W/m 6,3 km/h (2 Bft) 97,87 %
13.08.2017 03:24 16,5 C 16,1 C 15,0 C 98 % 15 lf 1016,4 hPa 0,0 l/m 0 min 0 min 0 W/m 6,3 km/h (2 Bft) 95,65 %
13.08.2017 03:26 16,4 C 16,1 C 15,0 C 98 % 15 lf 1016,5 hPa 0,0 l/m 0 min 0 min 0 W/m 8,4 km/h (2 Bft) 100,00 %
13.08.2017 03:28 16,5 C 15,6 C 15,0 C 98 % 15 lf 1016,4 hPa 0,0 l/m 0 min 0 min 0 W/m 6,3 km/h (2 Bft) 100,00 %
13.08.2017 03:30 16,5 C 15,6 C 15,0 C 98 % 15 lf 1016,5 hPa 0,0 l/m 0 min 0 min 0 W/m 6,3 km/h (2 Bft) 97,87 %
13.08.2017 03:32 16,4 C 15,6 C 15,0 C 98 % 15 lf 1016,4 hPa 0,0 l/m 0 min 0 min 0 W/m 6,3 km/h (2 Bft) 100,00 %
13.08.2017 03:34 16,4 C 16,1 C 15,0 C 98 % 15 lf 1016,3 hPa 0,0 l/m 0 min 0 min 0 W/m 8,4 km/h (2 Bft) 95,74 %
13.08.2017 03:36 16,4 C 15,6 C 15,0 C 98 % 15 lf 1016,3 hPa 0,0 l/m 0 min 0 min 0 W/m 6,3 km/h (2 Bft) 97,83 %
13.08.2017 03:38 16,4 C 15,6 C 15,0 C 98 % 15 lf 1016,4 hPa 0,0 l/m 0 min 0 min 0 W/m 6,3 km/h (2 Bft) 95,74 %
13.08.2017 03:40 16,4 C 15,6 C 15,0 C 98 % 15 lf 1016,4 hPa 0,0 l/m 0 min 0 min 0 W/m 6,3 km/h (2 Bft) 97,87 %
13.08.2017 03:42 16,4 C 16,1 C 15,0 C 98 % 15 lf 1016,4 hPa 0,0 l/m 0 min 0 min 0 W/m 8,4 km/h (2 Bft) 97,92 %
13.08.2017 03:44 16,4 C 16,1 C 15,0 C 98 % 15 lf 1016,4 hPa 0,0 l/m 0 min 0 min 0 W/m 6,3 km/h (2 Bft) 97,87 %
13.08.2017 03:46 16,4 C 15,6 C 15,0 C 98 % 15 lf 1016,4 hPa 0,0 l/m 0 min 0 min 0 W/m 6,3 km/h (2 Bft) 93,62 %
13.08.2017 03:48 16,4 C 15,6 C 15,0 C 98 % 15 lf 1016,4 hPa 0,0 l/m 0 min 0 min 0 W/m 6,3 km/h (2 Bft) 95,65 %
13.08.2017 03:50 16,4 C 15,6 C 15,0 C 98 % 15 lf 1016,4 hPa 0,0 l/m 0 min 0 min 0 W/m 6,3 km/h (2 Bft) 93,62 %
13.08.2017 03:52 16,4 C 15,6 C 15,0 C 98 % 15 lf 1016,4 hPa 0,0 l/m 0 min 0 min 0 W/m 4,2 km/h (1 Bft) 97,92 %
13.08.2017 03:54 16,4 C 15,6 C 15,0 C 98 % 15 lf 1016,5 hPa 0,0 l/m 0 min 0 min 0 W/m 6,3 km/h (2 Bft) 95,74 %
13.08.2017 03:56 16,4 C 15,6 C 15,0 C 98 % 15 lf 1016,5 hPa 0,0 l/m 0 min 0 min 0 W/m 8,4 km/h (2 Bft) 95,74 %
13.08.2017 03:58 16,4 C 15,6 C 14,4 C 98 % 15 lf 1016,4 hPa 0,0 l/m 0 min 0 min 0 W/m 4,2 km/h (1 Bft) 93,48 %
13.08.2017 04:00 16,4 C 15,6 C 14,4 C 98 % 15 lf 1016,5 hPa 0,0 l/m 0 min 0 min 0 W/m 4,2 km/h (1 Bft) 95,74 %
13.08.2017 04:02 16,4 C 15,6 C 14,4 C 98 % 15 lf 1016,5 hPa 0,0 l/m 0 min 0 min 0 W/m 6,3 km/h (2 Bft) 92,59 %
13.08.2017 04:04 16,4 C 15,6 C 14,4 C 98 % 15 lf 1016,5 hPa 0,0 l/m 0 min 0 min 0 W/m 6,3 km/h (2 Bft) 95,74 %
13.08.2017 04:06 16,4 C 15,6 C 14,4 C 98 % 15 lf 1016,5 hPa 0,0 l/m 0 min 0 min 0 W/m 8,4 km/h (2 Bft) 95,74 %
13.08.2017 04:08 16,3 C 15,6 C 14,4 C 98 % 15 lf 1016,6 hPa 0,0 l/m 0 min 0 min 0 W/m 6,3 km/h (2 Bft) 95,74 %
13.08.2017 04:10 16,3 C 15,6 C 14,4 C 98 % 15 lf 1016,6 hPa 0,0 l/m 0 min 0 min 0 W/m 6,3 km/h (2 Bft) 93,62 %
13.08.2017 04:12 16,3 C 15,6 C 14,4 C 98 % 15 lf 1016,7 hPa 0,0 l/m 0 min 0 min 0 W/m 6,3 km/h (2 Bft) 93,62 %
13.08.2017 04:14 16,3 C 15,6 C 14,4 C 98 % 15 lf 1016,6 hPa 0,0 l/m 0 min 0 min 0 W/m 6,3 km/h (2 Bft) 95,65 %
13.08.2017 04:16 16,3 C 15,6 C 15,0 C 98 % 15 lf 1016,6 hPa 0,0 l/m 0 min 0 min 0 W/m 8,4 km/h (2 Bft) 95,74 %
13.08.2017 04:18 16,3 C 15,6 C 15,0 C 98 % 15 lf 1016,7 hPa 0,0 l/m 0 min 0 min 0 W/m 4,2 km/h (1 Bft) 93,62 %
13.08.2017 04:20 16,3 C 15,6 C 15,0 C 98 % 15 lf 1016,6 hPa 0,0 l/m 0 min 0 min 0 W/m 6,3 km/h (2 Bft) 93,62 %
13.08.2017 04:22 16,3 C 15,6 C 15,0 C 98 % 15 lf 1016,7 hPa 0,0 l/m 0 min 0 min 0 W/m 6,3 km/h (2 Bft) 97,87 %
13.08.2017 04:24 16,3 C 15,6 C 15,0 C 98 % 15 lf 1016,6 hPa 0,0 l/m 0 min 0 min 0 W/m 4,2 km/h (1 Bft) 91,49 %
13.08.2017 04:26 16,3 C 15,6 C 15,0 C 98 % 15 lf 1016,6 hPa 0,0 l/m 0 min 0 min 0 W/m 6,3 km/h (2 Bft) 95,65 %
13.08.2017 04:28 16,3 C 15,6 C 15,0 C 98 % 15 lf 1016,6 hPa 0,0 l/m 0 min 0 min 0 W/m 4,2 km/h (1 Bft) 91,49 %
13.08.2017 04:30 16,3 C 15,6 C 15,0 C 98 % 15 lf 1016,6 hPa 0,0 l/m 0 min 0 min 0 W/m 6,3 km/h (2 Bft) 93,62 %
13.08.2017 04:32 16,3 C 15,6 C 15,0 C 98 % 15 lf 1016,6 hPa 0,0 l/m 0 min 0 min 0 W/m 4,2 km/h (1 Bft) 93,62 %
13.08.2017 04:34 16,3 C 15,6 C 15,0 C 98 % 15 lf 1016,6 hPa 0,0 l/m 0 min 0 min 0 W/m 4,2 km/h (1 Bft) 95,74 %
13.08.2017 04:36 16,3 C 15,6 C 14,4 C 98 % 15 lf 1016,6 hPa 0,0 l/m 0 min 0 min 0 W/m 4,2 km/h (1 Bft) 96,36 %
13.08.2017 04:38 16,3 C 15,6 C 14,4 C 98 % 15 lf 1016,6 hPa 0,0 l/m 0 min 0 min 0 W/m 2,1 km/h (1 Bft) 95,74 %
13.08.2017 04:40 16,2 C 15,6 C 14,4 C 98 % 15 lf 1016,6 hPa 0,0 l/m 0 min 0 min 0 W/m 4,2 km/h (1 Bft) 93,62 %
13.08.2017 04:42 16,2 C 15,6 C 14,4 C 98 % 15 lf 1016,6 hPa 0,0 l/m 0 min 0 min 0 W/m 4,2 km/h (1 Bft) 95,83 %
13.08.2017 04:44 16,2 C 15,6 C 14,4 C 98 % 15 lf 1016,6 hPa 0,0 l/m 0 min 0 min 0 W/m 4,2 km/h (1 Bft) 95,74 %
13.08.2017 04:46 16,2 C 15,6 C 14,4 C 98 % 15 lf 1016,7 hPa 0,0 l/m 0 min 0 min 0 W/m 4,2 km/h (1 Bft) 95,65 %
13.08.2017 04:48 16,2 C 15,6 C 14,4 C 98 % 15 lf 1016,6 hPa 0,0 l/m 0 min 0 min 0 W/m 6,3 km/h (2 Bft) 93,62 %
13.08.2017 04:50 16,2 C 15,6 C 14,4 C 98 % 15 lf 1016,7 hPa 0,0 l/m 0 min 0 min 0 W/m 6,3 km/h (2 Bft) 95,74 %
13.08.2017 04:52 16,2 C 15,6 C 14,4 C 98 % 15 lf 1016,7 hPa 0,0 l/m 0 min 0 min 0 W/m 4,2 km/h (1 Bft) 97,87 %
13.08.2017 04:54 16,2 C 15,6 C 14,4 C 98 % 15 lf 1016,7 hPa 0,0 l/m 0 min 0 min 0 W/m 6,3 km/h (2 Bft) 97,87 %
13.08.2017 04:56 16,2 C 15,6 C 14,4 C 98 % 15 lf 1016,6 hPa 0,0 l/m 0 min 0 min 0 W/m 6,3 km/h (2 Bft) 97,87 %
13.08.2017 04:58 16,2 C 15,6 C 14,4 C 98 % 15 lf 1016,6 hPa 0,0 l/m 0 min 0 min 0 W/m 6,3 km/h (2 Bft) 97,83 %
13.08.2017 05:00 16,2 C 15,6 C 14,4 C 98 % 15 lf 1016,7 hPa 0,0 l/m 0 min 0 min 0 W/m 4,2 km/h (1 Bft) 97,87 %
13.08.2017 05:02 16,2 C 15,6 C 14,4 C 98 % 15 lf 1016,7 hPa 0,0 l/m 0 min 0 min 0 W/m 4,2 km/h (1 Bft) 95,83 %
13.08.2017 05:04 16,1 C 15,6 C 14,4 C 99 % 15 lf 1016,7 hPa 0,0 l/m 0 min 0 min 0 W/m 2,1 km/h (1 Bft) 100,00 %
13.08.2017 05:06 16,1 C 15,6 C 14,4 C 99 % 15 lf 1016,7 hPa 0,0 l/m 0 min 0 min 0 W/m 2,1 km/h (1 Bft) 100,00 %
13.08.2017 05:08 16,1 C 15,6 C 14,4 C 99 % 15 lf 1016,7 hPa 0,0 l/m 0 min 0 min 0 W/m 2,1 km/h (1 Bft) 100,00 %
13.08.2017 05:10 16,1 C 15,6 C 14,4 C 99 % 15 lf 1016,7 hPa 0,0 l/m 0 min 0 min 0 W/m 4,2 km/h (1 Bft) 100,00 %
13.08.2017 05:12 16,1 C 15,6 C 14,4 C 99 % 15 lf 1016,7 hPa 0,0 l/m 0 min 0 min 0 W/m 4,2 km/h (1 Bft) 100,00 %
13.08.2017 05:14 16,1 C 15,6 C 14,4 C 99 % 15 lf 1016,8 hPa 0,0 l/m 0 min 0 min 0 W/m 4,2 km/h (1 Bft) 100,00 %
13.08.2017 05:16 16,1 C 15,6 C 14,4 C 99 % 15 lf 1016,7 hPa 0,0 l/m 0 min 0 min 0 W/m 6,3 km/h (2 Bft) 95,74 %
13.08.2017 05:18 16,1 C 15,6 C 14,4 C 99 % 15 lf 1016,7 hPa 0,0 l/m 0 min 0 min 0 W/m 6,3 km/h (2 Bft) 97,87 %
13.08.2017 05:20 16,1 C 15,6 C 14,4 C 99 % 15 lf 1016,7 hPa 0,0 l/m 0 min 2 min 0 W/m 6,3 km/h (2 Bft) 100,00 %
13.08.2017 05:22 16,1 C 15,6 C 14,4 C 99 % 15 lf 1016,6 hPa 0,0 l/m 0 min 2 min 0 W/m 6,3 km/h (2 Bft) 94,74 %
13.08.2017 05:24 16,1 C 15,6 C 14,4 C 99 % 15 lf 1016,7 hPa 0,0 l/m 0 min 2 min 0 W/m 6,3 km/h (2 Bft) 100,00 %
13.08.2017 05:26 16,1 C 15,6 C 14,4 C 99 % 15 lf 1016,7 hPa 0,0 l/m 0 min 2 min 0 W/m 6,3 km/h (2 Bft) 97,87 %
13.08.2017 05:28 16,1 C 15,6 C 14,4 C 99 % 15 lf 1016,7 hPa 0,0 l/m 0 min 0 min 0 W/m 6,3 km/h (2 Bft) 100,00 %
13.08.2017 05:30 16,1 C 15,6 C 15,0 C 99 % 15 lf 1016,7 hPa 0,0 l/m 0 min 0 min 0 W/m 6,3 km/h (2 Bft) 97,87 %
13.08.2017 05:32 16,1 C 15,6 C 15,0 C 99 % 15 lf 1016,6 hPa 0,0 l/m 0 min 0 min 0 W/m 6,3 km/h (2 Bft) 95,83 %
13.08.2017 05:34 16,1 C 15,6 C 15,0 C 99 % 15 lf 1016,6 hPa 0,0 l/m 0 min 0 min 0 W/m 6,3 km/h (2 Bft) 97,83 %
13.08.2017 05:36 16,1 C 15,6 C 15,0 C 99 % 15 lf 1016,7 hPa 0,0 l/m 0 min 0 min 0 W/m 4,2 km/h (1 Bft) 97,87 %
13.08.2017 05:38 16,1 C 15,6 C 15,0 C 99 % 15 lf 1016,7 hPa 0,0 l/m 0 min 0 min 0 W/m 2,1 km/h (1 Bft) 97,87 %
13.08.2017 05:40 16,1 C 15,6 C 15,0 C 99 % 15 lf 1016,7 hPa 0,0 l/m 0 min 0 min 0 W/m 6,3 km/h (2 Bft) 95,74 %
13.08.2017 05:42 16,1 C 15,6 C 15,0 C 99 % 15 lf 1016,8 hPa 0,0 l/m 0 min 0 min 0 W/m 6,3 km/h (2 Bft) 97,92 %
13.08.2017 05:44 16,1 C 15,6 C 15,0 C 99 % 15 lf 1016,7 hPa 0,0 l/m 0 min 0 min 0 W/m 4,2 km/h (1 Bft) 97,87 %
13.08.2017 05:46 16,1 C 15,6 C 15,0 C 99 % 15 lf 1016,8 hPa 0,0 l/m 0 min 0 min 0 W/m 4,2 km/h (1 Bft) 97,83 %
13.08.2017 05:48 16,1 C 15,6 C 15,0 C 99 % 15 lf 1016,7 hPa 0,0 l/m 0 min 0 min 0 W/m 2,1 km/h (1 Bft) 95,74 %
13.08.2017 05:50 16,1 C 15,6 C 14,4 C 99 % 15 lf 1016,8 hPa 0,0 l/m 0 min 0 min 0 W/m 4,2 km/h (1 Bft) 97,87 %
13.08.2017 05:52 16,1 C 15,6 C 14,4 C 99 % 15 lf 1016,8 hPa 0,0 l/m 0 min 0 min 0 W/m 4,2 km/h (1 Bft) 97,87 %
13.08.2017 05:54 16,1 C 15,6 C 14,4 C 99 % 15 lf 1016,8 hPa 0,0 l/m 0 min 0 min 0 W/m 4,2 km/h (1 Bft) 97,87 %
13.08.2017 05:56 16,1 C 15,6 C 14,4 C 99 % 15 lf 1016,8 hPa 0,0 l/m 0 min 0 min 0 W/m 6,3 km/h (2 Bft) 97,87 %
13.08.2017 05:58 16,1 C 15,6 C 14,4 C 99 % 15 lf 1016,9 hPa 0,0 l/m 0 min 0 min 0 W/m 6,3 km/h (2 Bft) 95,65 %
13.08.2017 06:00 16,1 C 15,6 C 14,4 C 99 % 15 lf 1016,9 hPa 0,0 l/m 0 min 0 min 0 W/m 6,3 km/h (2 Bft) 97,87 %
13.08.2017 06:02 16,1 C 15,6 C 14,4 C 99 % 15 lf 1016,9 hPa 0,0 l/m 0 min 0 min 0 W/m 6,3 km/h (2 Bft) 97,87 %
13.08.2017 06:04 16,1 C 15,6 C 14,4 C 99 % 15 lf 1016,9 hPa 0,0 l/m 0 min 0 min 0 W/m 6,3 km/h (2 Bft) 95,74 %
13.08.2017 06:07 16,1 C 15,6 C 14,4 C 99 % 15 lf 1016,9 hPa 0,0 l/m 0 min 0 min 0 W/m 6,3 km/h (2 Bft) 98,59 %
13.08.2017 06:08 16,1 C 15,6 C 14,4 C 99 % 15 lf 1016,9 hPa 0,0 l/m 0 min 0 min 0 W/m 6,3 km/h (2 Bft) 95,83 %
13.08.2017 06:10 16,1 C 15,6 C 14,4 C 99 % 15 lf 1017,0 hPa 0,0 l/m 0 min 0 min 0 W/m 6,3 km/h (2 Bft) 95,65 %
13.08.2017 06:12 16,1 C 15,6 C 14,4 C 99 % 15 lf 1017,0 hPa 0,0 l/m 0 min 0 min 0 W/m 6,3 km/h (2 Bft) 97,87 %
13.08.2017 06:14 16,1 C 15,6 C 14,4 C 99 % 15 lf 1017,0 hPa 0,0 l/m 0 min 0 min 0 W/m 4,2 km/h (1 Bft) 100,00 %
13.08.2017 06:16 16,1 C 15,6 C 14,4 C 99 % 15 lf 1017,0 hPa 0,0 l/m 0 min 0 min 4 W/m 4,2 km/h (1 Bft) 95,74 %
13.08.2017 06:18 16,1 C 15,6 C 14,4 C 99 % 15 lf 1016,9 hPa 0,0 l/m 0 min 0 min 7 W/m 6,3 km/h (2 Bft) 97,87 %
13.08.2017 06:20 16,1 C 15,6 C 14,4 C 99 % 15 lf 1016,9 hPa 0,0 l/m 0 min 0 min 7 W/m 6,3 km/h (2 Bft) 93,62 %
13.08.2017 06:22 16,1 C 15,6 C 14,4 C 99 % 15 lf 1017,0 hPa 0,0 l/m 0 min 0 min 7 W/m 6,3 km/h (2 Bft) 95,65 %
13.08.2017 06:24 16,1 C 15,6 C 14,4 C 99 % 15 lf 1017,0 hPa 0,0 l/m 0 min 0 min 9 W/m 8,4 km/h (2 Bft) 93,62 %
13.08.2017 06:26 16,0 C 15,6 C 14,4 C 99 % 15 lf 1017,0 hPa 0,0 l/m 0 min 0 min 9 W/m 6,3 km/h (2 Bft) 87,23 %
13.08.2017 06:28 16,0 C 15,0 C 14,4 C 99 % 15 lf 1017,0 hPa 0,0 l/m 0 min 0 min 9 W/m 6,3 km/h (2 Bft) 91,49 %
13.08.2017 06:30 16,0 C 15,0 C 13,9 C 99 % 15 lf 1017,0 hPa 0,0 l/m 0 min 0 min 11 W/m 4,2 km/h (1 Bft) 93,62 %
13.08.2017 06:32 16,0 C 15,0 C 13,9 C 99 % 15 lf 1017,1 hPa 0,0 l/m 0 min 0 min 11 W/m 4,2 km/h (1 Bft) 95,74 %
13.08.2017 06:34 16,0 C 15,0 C 14,4 C 99 % 15 lf 1017,1 hPa 0,0 l/m 0 min 0 min 12 W/m 6,3 km/h (2 Bft) 95,65 %
13.08.2017 06:36 16,0 C 15,0 C 14,4 C 99 % 15 lf 1017,1 hPa 0,0 l/m 0 min 0 min 12 W/m 4,2 km/h (1 Bft) 90,48 %
13.08.2017 06:38 15,9 C 15,0 C 14,4 C 99 % 15 lf 1017,1 hPa 0,0 l/m 0 min 0 min 12 W/m 4,2 km/h (1 Bft) 95,74 %
13.08.2017 06:40 15,9 C 15,0 C 14,4 C 99 % 15 lf 1017,1 hPa 0,0 l/m 0 min 0 min 13 W/m 4,2 km/h (1 Bft) 91,49 %
13.08.2017 06:42 15,9 C 15,0 C 14,4 C 99 % 15 lf 1017,2 hPa 0,0 l/m 0 min 0 min 15 W/m 6,3 km/h (2 Bft) 91,67 %
13.08.2017 06:44 15,9 C 15,6 C 14,4 C 99 % 15 lf 1017,2 hPa 0,0 l/m 0 min 0 min 16 W/m 6,3 km/h (2 Bft) 95,65 %
13.08.2017 06:46 15,9 C 15,6 C 14,4 C 99 % 15 lf 1017,2 hPa 0,0 l/m 0 min 0 min 17 W/m 6,3 km/h (2 Bft) 93,62 %
13.08.2017 06:48 15,9 C 15,6 C 14,4 C 99 % 15 lf 1017,3 hPa 0,0 l/m 0 min 0 min 19 W/m 6,3 km/h (2 Bft) 93,62 %
13.08.2017 06:50 15,9 C 15,6 C 14,4 C 99 % 15 lf 1017,3 hPa 0,0 l/m 0 min 0 min 22 W/m 6,3 km/h (2 Bft) 91,53 %
13.08.2017 06:52 15,9 C 15,6 C 14,4 C 99 % 15 lf 1017,3 hPa 0,0 l/m 0 min 0 min 22 W/m 10,5 km/h (2 Bft) 94,29 %
13.08.2017 06:54 15,9 C 15,6 C 14,4 C 99 % 15 lf 1017,4 hPa 0,0 l/m 0 min 0 min 25 W/m 10,5 km/h (2 Bft) 95,74 %
13.08.2017 06:56 15,9 C 15,6 C 14,4 C 99 % 15 lf 1017,3 hPa 0,0 l/m 0 min 0 min 27 W/m 10,5 km/h (2 Bft) 97,83 %
13.08.2017 06:58 15,9 C 15,6 C 14,4 C 99 % 15 lf 1017,4 hPa 0,0 l/m 0 min 0 min 32 W/m 12,6 km/h (3 Bft) 95,74 %
13.08.2017 07:00 15,8 C 15,6 C 14,4 C 99 % 15 lf 1017,4 hPa 0,0 l/m 0 min 0 min 35 W/m 12,6 km/h (3 Bft) 93,62 %
13.08.2017 07:02 15,8 C 15,6 C 14,4 C 99 % 15 lf 1017,3 hPa 0,0 l/m 0 min 0 min 38 W/m 12,6 km/h (3 Bft) 95,74 %
13.08.2017 07:04 15,8 C 15,6 C 14,4 C 99 % 15 lf 1017,4 hPa 0,0 l/m 0 min 0 min 41 W/m 8,4 km/h (2 Bft) 95,74 %
13.08.2017 07:06 15,8 C 15,6 C 14,4 C 99 % 15 lf 1017,4 hPa 0,0 l/m 0 min 0 min 45 W/m 8,4 km/h (2 Bft) 96,08 %
13.08.2017 07:08 15,8 C 15,0 C 14,4 C 99 % 15 lf 1017,4 hPa 0,0 l/m 0 min 0 min 44 W/m 10,5 km/h (2 Bft) 97,83 %
13.08.2017 07:10 15,8 C 15,0 C 14,4 C 99 % 15 lf 1017,5 hPa 0,0 l/m 0 min 0 min 46 W/m 12,6 km/h (3 Bft) 95,74 %
13.08.2017 07:12 15,8 C 15,0 C 13,9 C 99 % 15 lf 1017,5 hPa 0,0 l/m 0 min 0 min 43 W/m 10,5 km/h (2 Bft) 97,87 %
13.08.2017 07:14 15,8 C 15,0 C 13,9 C 99 % 15 lf 1017,5 hPa 0,0 l/m 0 min 0 min 57 W/m 12,6 km/h (3 Bft) 95,74 %
13.08.2017 07:16 15,7 C 15,0 C 13,9 C 99 % 15 lf 1017,5 hPa 0,0 l/m 0 min 0 min 58 W/m 12,6 km/h (3 Bft) 95,74 %
13.08.2017 07:18 15,7 C 15,0 C 13,9 C 99 % 15 lf 1017,5 hPa 0,0 l/m 2 min 0 min 69 W/m 10,5 km/h (2 Bft) 97,87 %
13.08.2017 07:20 15,7 C 15,0 C 13,9 C 99 % 15 lf 1017,6 hPa 0,0 l/m 2 min 0 min 75 W/m 14,6 km/h (3 Bft) 95,65 %
13.08.2017 07:22 15,7 C 15,0 C 13,9 C 99 % 15 lf 1017,6 hPa 0,0 l/m 2 min 0 min 77 W/m 12,6 km/h (3 Bft) 92,86 %
13.08.2017 07:24 15,7 C 15,0 C 13,9 C 99 % 15 lf 1017,6 hPa 0,0 l/m 2 min 0 min 95 W/m 8,4 km/h (2 Bft) 97,87 %
13.08.2017 07:26 15,6 C 15,0 C 13,9 C 99 % 15 lf 1017,6 hPa 0,0 l/m 2 min 0 min 82 W/m 8,4 km/h (2 Bft) 93,62 %
13.08.2017 07:28 15,6 C 15,0 C 13,9 C 99 % 15 lf 1017,6 hPa 0,0 l/m 2 min 0 min 96 W/m 8,4 km/h (2 Bft) 97,87 %
13.08.2017 07:30 15,6 C 15,6 C 13,9 C 99 % 15 lf 1017,6 hPa 0,0 l/m 2 min 0 min 127 W/m 8,4 km/h (2 Bft) 97,87 %
13.08.2017 07:33 15,6 C 15,0 C 13,9 C 99 % 15 lf 1017,7 hPa 0,0 l/m 3 min 0 min 135 W/m 8,4 km/h (2 Bft) 93,15 %
13.08.2017 07:34 15,6 C 15,0 C 13,9 C 99 % 15 lf 1017,7 hPa 0,0 l/m 1 min 0 min 124 W/m 6,3 km/h (2 Bft) 100,00 %
13.08.2017 07:36 15,6 C 15,0 C 14,4 C 99 % 15 lf 1017,6 hPa 0,0 l/m 2 min 0 min 107 W/m 8,4 km/h (2 Bft) 97,96 %
13.08.2017 07:38 15,6 C 15,6 C 14,4 C 99 % 15 lf 1017,7 hPa 0,0 l/m 0 min 0 min 93 W/m 6,3 km/h (2 Bft) 97,87 %
13.08.2017 07:40 15,6 C 15,6 C 14,4 C 99 % 15 lf 1017,7 hPa 0,0 l/m 0 min 0 min 82 W/m 12,6 km/h (3 Bft) 97,87 %
13.08.2017 07:42 15,6 C 15,6 C 14,4 C 99 % 15 lf 1017,7 hPa 0,0 l/m 0 min 0 min 62 W/m 14,6 km/h (3 Bft) 95,74 %
13.08.2017 07:44 15,6 C 15,0 C 14,4 C 99 % 15 lf 1017,7 hPa 0,0 l/m 0 min 0 min 48 W/m 12,6 km/h (3 Bft) 95,65 %
13.08.2017 07:46 15,6 C 15,0 C 14,4 C 99 % 15 lf 1017,7 hPa 0,0 l/m 0 min 0 min 45 W/m 12,6 km/h (3 Bft) 97,87 %
13.08.2017 07:48 15,6 C 15,0 C 14,4 C 99 % 15 lf 1017,9 hPa 0,0 l/m 0 min 0 min 61 W/m 10,5 km/h (2 Bft) 97,87 %
13.08.2017 07:50 15,5 C 15,0 C 14,4 C 99 % 15 lf 1017,9 hPa 0,0 l/m 0 min 0 min 53 W/m 12,6 km/h (3 Bft) 97,87 %
13.08.2017 07:52 15,5 C 15,0 C 14,4 C 99 % 15 lf 1017,9 hPa 0,0 l/m 0 min 0 min 59 W/m 10,5 km/h (2 Bft) 100,00 %
13.08.2017 07:54 15,5 C 15,0 C 14,4 C 99 % 15 lf 1017,9 hPa 0,0 l/m 0 min 0 min 60 W/m 14,6 km/h (3 Bft) 100,00 %
13.08.2017 07:56 15,5 C 15,0 C 14,4 C 99 % 15 lf 1017,9 hPa 0,0 l/m 0 min 0 min 72 W/m 16,7 km/h (3 Bft) 100,00 %
13.08.2017 07:58 15,5 C 15,6 C 14,4 C 99 % 15 lf 1018,0 hPa 0,0 l/m 0 min 0 min 83 W/m 8,4 km/h (2 Bft) 97,87 %
13.08.2017 08:00 15,5 C 15,6 C 15,0 C 99 % 15 lf 1018,0 hPa 0,0 l/m 0 min 0 min 102 W/m 10,5 km/h (2 Bft) 97,87 %
13.08.2017 08:02 15,5 C 15,6 C 15,0 C 99 % 15 lf 1018,1 hPa 0,0 l/m 0 min 0 min 109 W/m 8,4 km/h (2 Bft) 97,87 %
13.08.2017 08:04 15,5 C 15,6 C 15,0 C 99 % 15 lf 1018,2 hPa 0,0 l/m 0 min 0 min 107 W/m 8,4 km/h (2 Bft) 100,00 %
13.08.2017 08:06 15,5 C 15,6 C 15,0 C 99 % 15 lf 1018,1 hPa 0,0 l/m 2 min 0 min 155 W/m 6,3 km/h (2 Bft) 100,00 %
13.08.2017 08:08 15,6 C 15,6 C 15,0 C 99 % 15 lf 1018,2 hPa 0,0 l/m 2 min 0 min 148 W/m 6,3 km/h (2 Bft) 100,00 %
13.08.2017 08:10 15,6 C 16,1 C 15,0 C 99 % 15 lf 1018,2 hPa 0,0 l/m 2 min 0 min 179 W/m 4,2 km/h (1 Bft) 100,00 %
13.08.2017 08:12 15,6 C 16,1 C 15,0 C 99 % 15 lf 1018,2 hPa 0,0 l/m 2 min 0 min 185 W/m 8,4 km/h (2 Bft) 95,74 %
13.08.2017 08:14 15,6 C 16,1 C 15,0 C 99 % 15 lf 1018,2 hPa 0,0 l/m 2 min 0 min 206 W/m 6,3 km/h (2 Bft) 97,87 %
13.08.2017 08:16 15,6 C 16,1 C 15,0 C 99 % 15 lf 1018,2 hPa 0,0 l/m 2 min 0 min 219 W/m 8,4 km/h (2 Bft) 97,87 %
13.08.2017 08:18 15,6 C 16,1 C 15,0 C 99 % 15 lf 1018,2 hPa 0,0 l/m 2 min 0 min 217 W/m 8,4 km/h (2 Bft) 100,00 %
13.08.2017 08:20 15,7 C 16,1 C 15,0 C 99 % 15 lf 1018,2 hPa 0,0 l/m 2 min 0 min 198 W/m 10,5 km/h (2 Bft) 97,87 %
13.08.2017 08:22 15,7 C 16,1 C 15,0 C 99 % 15 lf 1018,2 hPa 0,0 l/m 2 min 0 min 174 W/m 12,6 km/h (3 Bft) 97,87 %
13.08.2017 08:24 15,7 C 16,1 C 15,0 C 99 % 15 lf 1018,2 hPa 0,0 l/m 2 min 0 min 282 W/m 10,5 km/h (2 Bft) 97,87 %
13.08.2017 08:26 15,7 C 16,1 C 15,0 C 99 % 15 lf 1018,2 hPa 0,0 l/m 2 min 0 min 283 W/m 12,6 km/h (3 Bft) 97,87 %
13.08.2017 08:28 15,7 C 16,1 C 15,0 C 99 % 15 lf 1018,2 hPa 0,0 l/m 2 min 0 min 265 W/m 12,6 km/h (3 Bft) 97,87 %
13.08.2017 08:30 15,7 C 16,1 C 15,0 C 99 % 15 lf 1018,2 hPa 0,0 l/m 2 min 0 min 286 W/m 14,6 km/h (3 Bft) 93,48 %
13.08.2017 08:32 15,7 C 16,1 C 15,0 C 99 % 15 lf 1018,2 hPa 0,0 l/m 2 min 0 min 211 W/m 10,5 km/h (2 Bft) 93,62 %
13.08.2017 08:34 15,8 C 16,1 C 15,0 C 99 % 15 lf 1018,2 hPa 0,0 l/m 2 min 0 min 243 W/m 10,5 km/h (2 Bft) 95,74 %
13.08.2017 08:36 15,8 C 16,7 C 15,0 C 99 % 15 lf 1018,3 hPa 0,0 l/m 2 min 0 min 211 W/m 8,4 km/h (2 Bft) 97,62 %
13.08.2017 08:38 15,8 C 17,2 C 15,6 C 99 % 15 lf 1018,3 hPa 0,0 l/m 2 min 0 min 212 W/m 6,3 km/h (2 Bft) 97,87 %
13.08.2017 08:40 15,9 C 16,7 C 15,6 C 99 % 15 lf 1018,3 hPa 0,0 l/m 2 min 0 min 198 W/m 12,6 km/h (3 Bft) 97,87 %
13.08.2017 08:42 15,9 C 16,7 C 15,6 C 99 % 15 lf 1018,3 hPa 0,0 l/m 2 min 0 min 246 W/m 14,6 km/h (3 Bft) 93,48 %
13.08.2017 08:44 15,9 C 17,2 C 15,6 C 99 % 15 lf 1018,3 hPa 0,0 l/m 2 min 0 min 231 W/m 10,5 km/h (2 Bft) 100,00 %
13.08.2017 08:46 16,0 C 16,7 C 16,1 C 99 % 15 lf 1018,4 hPa 0,0 l/m 0 min 0 min 174 W/m 10,5 km/h (2 Bft) 97,87 %
13.08.2017 08:48 16,0 C 16,7 C 16,1 C 99 % 15 lf 1018,4 hPa 0,0 l/m 0 min 0 min 157 W/m 12,6 km/h (3 Bft) 100,00 %
13.08.2017 08:50 16,1 C 16,7 C 15,6 C 99 % 15 lf 1018,4 hPa 0,0 l/m 0 min 0 min 142 W/m 14,6 km/h (3 Bft) 96,61 %
13.08.2017 08:52 16,1 C 16,7 C 15,6 C 99 % 15 lf 1018,4 hPa 0,0 l/m 0 min 0 min 152 W/m 10,5 km/h (2 Bft) 100,00 %
13.08.2017 08:54 16,1 C 17,2 C 16,1 C 99 % 15 lf 1018,5 hPa 0,0 l/m 0 min 0 min 144 W/m 8,4 km/h (2 Bft) 97,83 %
13.08.2017 08:56 16,1 C 16,7 C 16,1 C 99 % 14 lf 1018,4 hPa 0,0 l/m 0 min 0 min 156 W/m 12,6 km/h (3 Bft) 97,87 %
13.08.2017 08:58 16,1 C 16,7 C 16,1 C 99 % 14 lf 1018,5 hPa 0,0 l/m 0 min 0 min 192 W/m 14,6 km/h (3 Bft) 100,00 %
13.08.2017 09:00 16,1 C 17,2 C 16,1 C 99 % 12 lf 1018,5 hPa 0,0 l/m 2 min 0 min 223 W/m 10,5 km/h (2 Bft) 100,00 %
13.08.2017 09:02 16,1 C 17,2 C 16,1 C 99 % 11 lf 1018,5 hPa 0,0 l/m 0 min 0 min 177 W/m 14,6 km/h (3 Bft) 97,87 %
13.08.2017 09:04 16,2 C 17,2 C 16,1 C 99 % 10 lf 1018,5 hPa 0,0 l/m 0 min 0 min 191 W/m 10,5 km/h (2 Bft) 100,00 %
13.08.2017 09:06 16,2 C 17,2 C 16,1 C 99 % 9 lf 1018,5 hPa 0,0 l/m 0 min 0 min 190 W/m 10,5 km/h (2 Bft) 95,92 %
13.08.2017 09:08 16,2 C 16,7 C 16,1 C 99 % 7 lf 1018,5 hPa 0,0 l/m 0 min 0 min 166 W/m 12,6 km/h (3 Bft) 93,62 %
13.08.2017 09:10 16,1 C 16,7 C 16,1 C 99 % 4 lf 1018,6 hPa 0,0 l/m 0 min 0 min 157 W/m 12,6 km/h (3 Bft) 93,62 %
13.08.2017 09:12 16,1 C 16,7 C 16,1 C 99 % 4 lf 1018,6 hPa 0,0 l/m 0 min 0 min 179 W/m 12,6 km/h (3 Bft) 93,62 %
13.08.2017 09:14 16,1 C 16,7 C 16,1 C 99 % 3 lf 1018,6 hPa 0,0 l/m 0 min 0 min 192 W/m 10,5 km/h (2 Bft) 95,74 %
13.08.2017 09:16 16,1 C 17,2 C 16,1 C 99 % 3 lf 1018,6 hPa 0,0 l/m 2 min 0 min 228 W/m 10,5 km/h (2 Bft) 95,65 %
13.08.2017 09:18 16,1 C 17,2 C 16,1 C 99 % 2 lf 1018,6 hPa 0,0 l/m 2 min 0 min 251 W/m 14,6 km/h (3 Bft) 97,87 %
13.08.2017 09:20 16,0 C 16,7 C 16,1 C 99 % 2 lf 1018,6 hPa 0,0 l/m 2 min 0 min 236 W/m 14,6 km/h (3 Bft) 95,74 %
13.08.2017 09:22 16,0 C 16,7 C 15,6 C 99 % 1 lf 1018,6 hPa 0,0 l/m 0 min 0 min 210 W/m 12,6 km/h (3 Bft) 91,49 %
13.08.2017 09:24 16,0 C 16,7 C 16,1 C 99 % 1 lf 1018,7 hPa 0,0 l/m 0 min 0 min 189 W/m 10,5 km/h (2 Bft) 95,74 %
13.08.2017 09:26 16,0 C 16,7 C 16,1 C 99 % 1 lf 1018,7 hPa 0,0 l/m 0 min 0 min 185 W/m 14,6 km/h (3 Bft) 95,74 %
13.08.2017 09:28 16,0 C 16,1 C 16,1 C 99 % 1 lf 1018,7 hPa 0,0 l/m 0 min 0 min 179 W/m 12,6 km/h (3 Bft) 93,48 %
13.08.2017 09:30 16,0 C 16,7 C 16,1 C 99 % 1 lf 1018,8 hPa 0,0 l/m 0 min 0 min 183 W/m 12,6 km/h (3 Bft) 93,62 %
13.08.2017 09:32 16,1 C 16,7 C 16,1 C 99 % 1 lf 1018,8 hPa 0,0 l/m 0 min 0 min 186 W/m 14,6 km/h (3 Bft) 95,83 %
13.08.2017 09:34 16,0 C 16,1 C 16,1 C 99 % 1 lf 1018,8 hPa 0,0 l/m 0 min 0 min 186 W/m 14,6 km/h (3 Bft) 89,36 %
13.08.2017 09:36 16,0 C 16,7 C 16,1 C 99 % 1 lf 1018,8 hPa 0,0 l/m 0 min 0 min 195 W/m 12,6 km/h (3 Bft) 93,75 %
13.08.2017 09:38 16,0 C 16,7 C 16,1 C 99 % 1 lf 1018,9 hPa 0,0 l/m 0 min 0 min 186 W/m 16,7 km/h (3 Bft) 93,62 %
13.08.2017 09:40 16,1 C 16,7 C 16,1 C 99 % 0 lf 1019,0 hPa 0,0 l/m 0 min 0 min 188 W/m 14,6 km/h (3 Bft) 95,65 %
13.08.2017 09:42 16,1 C 16,7 C 16,1 C 99 % 0 lf 1018,9 hPa 0,0 l/m 0 min 0 min 193 W/m 14,6 km/h (3 Bft) 93,62 %
13.08.2017 09:44 16,0 C 16,7 C 16,1 C 99 % 0 lf 1019,0 hPa 0,0 l/m 0 min 0 min 192 W/m 12,6 km/h (3 Bft) 95,74 %
13.08.2017 09:46 16,1 C 17,2 C 16,1 C 98 % 0 lf 1018,9 hPa 0,0 l/m 0 min 0 min 192 W/m 10,5 km/h (2 Bft) 91,49 %
13.08.2017 09:48 16,1 C 16,7 C 16,1 C 98 % 0 lf 1018,9 hPa 0,0 l/m 0 min 0 min 189 W/m 10,5 km/h (2 Bft) 91,49 %
13.08.2017 09:50 16,1 C 17,2 C 16,1 C 98 % 0 lf 1018,9 hPa 0,0 l/m 0 min 0 min 187 W/m 12,6 km/h (3 Bft) 93,62 %
13.08.2017 09:52 16,2 C 16,7 C 16,1 C 98 % 0 lf 1019,0 hPa 0,0 l/m 0 min 0 min 171 W/m 12,6 km/h (3 Bft) 91,30 %
13.08.2017 09:54 16,2 C 16,7 C 16,1 C 98 % 0 lf 1018,9 hPa 0,0 l/m 0 min 0 min 150 W/m 14,6 km/h (3 Bft) 95,74 %
13.08.2017 09:56 16,2 C 16,7 C 15,6 C 98 % 0 lf 1019,0 hPa 0,0 l/m 0 min 0 min 135 W/m 10,5 km/h (2 Bft) 93,62 %
13.08.2017 09:58 16,2 C 16,7 C 15,6 C 98 % 0 lf 1018,9 hPa 0,0 l/m 0 min 0 min 130 W/m 6,3 km/h (2 Bft) 95,74 %
13.08.2017 10:00 16,2 C 16,7 C 16,1 C 98 % 0 lf 1019,1 hPa 0,0 l/m 0 min 0 min 141 W/m 10,5 km/h (2 Bft) 97,87 %
13.08.2017 10:02 16,2 C 16,7 C 15,6 C 98 % 0 lf 1019,0 hPa 0,0 l/m 0 min 0 min 157 W/m 14,6 km/h (3 Bft) 93,62 %
13.08.2017 10:04 16,2 C 16,1 C 15,6 C 98 % 0 lf 1019,1 hPa 0,0 l/m 0 min 0 min 163 W/m 14,6 km/h (3 Bft) 93,48 %
13.08.2017 10:06 16,2 C 16,7 C 15,6 C 98 % 0 lf 1019,1 hPa 0,0 l/m 0 min 0 min 166 W/m 12,6 km/h (3 Bft) 95,74 %
13.08.2017 10:08 16,2 C 16,7 C 16,1 C 98 % 0 lf 1019,1 hPa 0,0 l/m 0 min 0 min 183 W/m 8,4 km/h (2 Bft) 95,74 %
13.08.2017 10:10 16,2 C 16,7 C 16,1 C 98 % 0 lf 1019,2 hPa 0,0 l/m 0 min 0 min 206 W/m 10,5 km/h (2 Bft) 95,74 %
13.08.2017 10:12 16,2 C 16,7 C 16,1 C 98 % 0 lf 1019,2 hPa 0,0 l/m 0 min 0 min 215 W/m 12,6 km/h (3 Bft) 95,74 %
13.08.2017 10:14 16,2 C 16,7 C 16,1 C 98 % 0 lf 1019,2 hPa 0,0 l/m 0 min 0 min 199 W/m 10,5 km/h (2 Bft) 95,74 %
13.08.2017 10:16 16,2 C 17,2 C 16,1 C 97 % 0 lf 1019,3 hPa 0,0 l/m 0 min 0 min 198 W/m 6,3 km/h (2 Bft) 97,83 %
13.08.2017 10:18 16,3 C 16,7 C 16,1 C 97 % 0 lf 1019,3 hPa 0,0 l/m 0 min 0 min 211 W/m 8,4 km/h (2 Bft) 97,87 %
13.08.2017 10:20 16,3 C 17,2 C 16,1 C 97 % 0 lf 1019,3 hPa 0,0 l/m 0 min 0 min 198 W/m 10,5 km/h (2 Bft) 97,87 %
13.08.2017 10:22 16,3 C 17,2 C 16,1 C 97 % 0 lf 1019,3 hPa 0,0 l/m 0 min 0 min 189 W/m 10,5 km/h (2 Bft) 93,62 %
13.08.2017 10:24 16,3 C 17,8 C 16,1 C 97 % 0 lf 1019,4 hPa 0,0 l/m 0 min 0 min 214 W/m 12,6 km/h (3 Bft) 91,49 %
13.08.2017 10:26 16,4 C 17,8 C 16,7 C 97 % 0 lf 1019,4 hPa 0,0 l/m 0 min 0 min 226 W/m 10,5 km/h (2 Bft) 95,74 %
13.08.2017 10:28 16,4 C 18,3 C 16,7 C 97 % 0 lf 1019,4 hPa 0,0 l/m 0 min 0 min 208 W/m 10,5 km/h (2 Bft) 93,48 %
13.08.2017 10:30 16,4 C 18,3 C 16,7 C 97 % 0 lf 1019,4 hPa 0,0 l/m 0 min 0 min 193 W/m 14,6 km/h (3 Bft) 95,74 %
13.08.2017 10:32 16,5 C 18,9 C 16,7 C 97 % 0 lf 1019,4 hPa 0,0 l/m 0 min 0 min 208 W/m 16,7 km/h (3 Bft) 91,49 %
13.08.2017 10:34 16,6 C 18,9 C 16,7 C 97 % 0 lf 1019,4 hPa 0,0 l/m 0 min 0 min 202 W/m 14,6 km/h (3 Bft) 93,62 %
13.08.2017 10:36 16,6 C 18,9 C 16,7 C 97 % 0 lf 1019,5 hPa 0,0 l/m 0 min 0 min 231 W/m 14,6 km/h (3 Bft) 95,35 %
13.08.2017 10:38 16,6 C 18,9 C 16,7 C 97 % 0 lf 1019,5 hPa 0,0 l/m 0 min 0 min 265 W/m 14,6 km/h (3 Bft) 95,74 %
13.08.2017 10:40 16,6 C 18,9 C 16,7 C 97 % 0 lf 1019,4 hPa 0,0 l/m 0 min 0 min 254 W/m 12,6 km/h (3 Bft) 93,48 %
13.08.2017 10:42 16,6 C 18,3 C 16,7 C 96 % 0 lf 1019,4 hPa 0,0 l/m 0 min 0 min 258 W/m 12,6 km/h (3 Bft) 95,74 %
13.08.2017 10:44 16,7 C 19,4 C 17,2 C 96 % 0 lf 1019,5 hPa 0,0 l/m 2 min 0 min 311 W/m 8,4 km/h (2 Bft) 95,74 %
13.08.2017 10:46 16,7 C 20,0 C 17,2 C 96 % 0 lf 1019,4 hPa 0,0 l/m 2 min 0 min 365 W/m 10,5 km/h (2 Bft) 93,62 %
13.08.2017 10:48 16,8 C 21,1 C 17,8 C 96 % 0 lf 1019,5 hPa 0,0 l/m 2 min 0 min 392 W/m 6,3 km/h (2 Bft) 95,74 %
13.08.2017 10:50 16,9 C 21,7 C 17,8 C 96 % 0 lf 1019,5 hPa 0,0 l/m 2 min 0 min 368 W/m 14,6 km/h (3 Bft) 95,74 %
13.08.2017 10:52 16,9 C 20,6 C 17,2 C 96 % 0 lf 1019,5 hPa 0,0 l/m 2 min 0 min 353 W/m 18,8 km/h (3 Bft) 97,83 %
13.08.2017 10:54 16,9 C 20,6 C 17,8 C 96 % 0 lf 1019,5 hPa 0,0 l/m 2 min 0 min 348 W/m 12,6 km/h (3 Bft) 95,74 %
13.08.2017 10:56 16,9 C 21,1 C 17,8 C 96 % 0 lf 1019,6 hPa 0,0 l/m 2 min 0 min 358 W/m 16,7 km/h (3 Bft) 97,87 %
13.08.2017 10:58 17,0 C 22,2 C 18,3 C 95 % 0 lf 1019,6 hPa 0,0 l/m 2 min 0 min 457 W/m 10,5 km/h (2 Bft) 93,62 %
13.08.2017 11:00 17,1 C 21,1 C 17,8 C 95 % 0 lf 1019,6 hPa 0,0 l/m 2 min 0 min 435 W/m 10,5 km/h (2 Bft) 97,87 %
13.08.2017 11:02 17,1 C 20,0 C 17,2 C 95 % 0 lf 1019,6 hPa 0,0 l/m 0 min 0 min 309 W/m 18,8 km/h (3 Bft) 100,00 %
13.08.2017 11:04 17,2 C 20,6 C 17,8 C 94 % 0 lf 1019,6 hPa 0,0 l/m 2 min 0 min 351 W/m 16,7 km/h (3 Bft) 100,00 %
13.08.2017 11:06 17,2 C 21,1 C 17,8 C 94 % 0 lf 1019,6 hPa 0,0 l/m 2 min 0 min 356 W/m 12,6 km/h (3 Bft) 100,00 %
13.08.2017 11:08 17,3 C 21,1 C 17,8 C 94 % 0 lf 1019,6 hPa 0,0 l/m 2 min 0 min 428 W/m 12,6 km/h (3 Bft) 97,87 %
13.08.2017 11:10 17,3 C 20,6 C 17,2 C 93 % 0 lf 1019,6 hPa 0,0 l/m 2 min 0 min 650 W/m 12,6 km/h (3 Bft) 100,00 %
13.08.2017 11:12 17,4 C 20,6 C 17,2 C 93 % 0 lf 1019,6 hPa 0,0 l/m 2 min 0 min 699 W/m 10,5 km/h (2 Bft) 97,87 %
13.08.2017 11:14 17,4 C 20,6 C 17,2 C 93 % 0 lf 1019,6 hPa 0,0 l/m 2 min 0 min 723 W/m 8,4 km/h (2 Bft) 95,65 %
13.08.2017 11:16 17,5 C 20,0 C 17,8 C 93 % 0 lf 1019,7 hPa 0,0 l/m 2 min 0 min 747 W/m 16,7 km/h (3 Bft) 100,00 %
13.08.2017 11:18 17,5 C 20,0 C 17,8 C 92 % 0 lf 1019,7 hPa 0,0 l/m 2 min 0 min 710 W/m 10,5 km/h (2 Bft) 100,00 %
13.08.2017 11:20 17,6 C 20,6 C 17,2 C 92 % 0 lf 1019,7 hPa 0,0 l/m 2 min 0 min 718 W/m 14,6 km/h (3 Bft) 97,87 %
13.08.2017 11:22 17,6 C 20,6 C 17,2 C 92 % 0 lf 1019,7 hPa 0,0 l/m 2 min 0 min 742 W/m 14,6 km/h (3 Bft) 100,00 %
13.08.2017 11:24 17,6 C 20,0 C 17,2 C 92 % 0 lf 1019,6 hPa 0,0 l/m 2 min 0 min 731 W/m 14,6 km/h (3 Bft) 100,00 %
13.08.2017 11:26 17,7 C 20,0 C 17,2 C 92 % 0 lf 1019,7 hPa 0,0 l/m 2 min 0 min 661 W/m 10,5 km/h (2 Bft) 97,83 %
13.08.2017 11:28 17,7 C 20,0 C 17,2 C 91 % 0 lf 1019,7 hPa 0,0 l/m 2 min 0 min 717 W/m 10,5 km/h (2 Bft) 100,00 %
13.08.2017 11:30 17,7 C 20,0 C 17,2 C 91 % 0 lf 1019,7 hPa 0,0 l/m 2 min 0 min 714 W/m 8,4 km/h (2 Bft) 100,00 %
13.08.2017 11:32 17,7 C 19,4 C 17,2 C 91 % 0 lf 1019,7 hPa 0,0 l/m 2 min 0 min 492 W/m 8,4 km/h (2 Bft) 95,24 %
13.08.2017 11:34 17,7 C 20,0 C 17,8 C 91 % 0 lf 1019,7 hPa 0,0 l/m 2 min 0 min 351 W/m 8,4 km/h (2 Bft) 100,00 %
13.08.2017 11:36 17,8 C 20,0 C 17,8 C 91 % 0 lf 1019,7 hPa 0,0 l/m 2 min 0 min 368 W/m 12,6 km/h (3 Bft) 100,00 %
13.08.2017 11:38 17,8 C 20,6 C 17,8 C 91 % 0 lf 1019,7 hPa 0,0 l/m 2 min 0 min 350 W/m 16,7 km/h (3 Bft) 100,00 %
13.08.2017 11:40 17,9 C 21,1 C 18,3 C 91 % 0 lf 1019,7 hPa 0,0 l/m 2 min 0 min 427 W/m 10,5 km/h (2 Bft) 100,00 %
13.08.2017 11:42 17,9 C 22,2 C 18,9 C 91 % 0 lf 1019,7 hPa 0,0 l/m 2 min 0 min 387 W/m 12,6 km/h (3 Bft) 100,00 %
13.08.2017 11:44 18,0 C 23,9 C 20,0 C 91 % 0 lf 1019,7 hPa 0,0 l/m 2 min 0 min 362 W/m 10,5 km/h (2 Bft) 100,00 %
13.08.2017 11:46 18,1 C 25,6 C 20,6 C 91 % 0 lf 1019,7 hPa 0,0 l/m 2 min 0 min 362 W/m 14,6 km/h (3 Bft) 97,87 %
13.08.2017 11:48 18,2 C 26,1 C 20,6 C 91 % 0 lf 1019,7 hPa 0,0 l/m 0 min 0 min 268 W/m 8,4 km/h (2 Bft) 100,00 %
13.08.2017 11:50 18,3 C 26,7 C 20,6 C 91 % 0 lf 1019,7 hPa 0,0 l/m 0 min 0 min 152 W/m 6,3 km/h (2 Bft) 98,28 %
13.08.2017 11:52 18,4 C 26,7 C 21,1 C 91 % 0 lf 1019,7 hPa 0,0 l/m 0 min 0 min 149 W/m 10,5 km/h (2 Bft) 97,14 %
13.08.2017 11:54 18,5 C 28,3 C 21,7 C 90 % 0 lf 1019,7 hPa 0,0 l/m 0 min 0 min 245 W/m 10,5 km/h (2 Bft) 97,87 %
13.08.2017 11:56 18,6 C 27,2 C 20,6 C 90 % 0 lf 1019,7 hPa 0,0 l/m 0 min 0 min 335 W/m 10,5 km/h (2 Bft) 95,74 %
13.08.2017 11:58 18,6 C 24,4 C 19,4 C 89 % 0 lf 1019,7 hPa 0,0 l/m 0 min 0 min 331 W/m 10,5 km/h (2 Bft) 97,87 %
13.08.2017 12:00 18,6 C 25,0 C 20,0 C 89 % 0 lf 1019,7 hPa 0,0 l/m 0 min 0 min 334 W/m 12,6 km/h (3 Bft) 95,74 %
13.08.2017 12:02 18,7 C 25,6 C 20,6 C 88 % 0 lf 1019,7 hPa 0,0 l/m 2 min 0 min 530 W/m 12,6 km/h (3 Bft) 95,65 %
13.08.2017 12:04 18,7 C 27,2 C 21,7 C 88 % 0 lf 1019,7 hPa 0,0 l/m 2 min 0 min 462 W/m 8,4 km/h (2 Bft) 97,87 %
13.08.2017 12:06 18,8 C 27,8 C 21,7 C 88 % 0 lf 1019,7 hPa 0,0 l/m 2 min 0 min 436 W/m 14,6 km/h (3 Bft) 91,49 %
13.08.2017 12:10 19,1 C 28,3 C 23,9 C 87 % 0 lf 1019,7 hPa 0,0 l/m 4 min 0 min 460 W/m 12,6 km/h (3 Bft) 96,94 %
13.08.2017 12:12 19,2 C 29,4 C 25,0 C 87 % 0 lf 1019,7 hPa 0,0 l/m 2 min 0 min 573 W/m 8,4 km/h (2 Bft) 97,87 %
13.08.2017 12:14 19,3 C 28,9 C 24,4 C 87 % 0 lf 1019,7 hPa 0,0 l/m 2 min 0 min 574 W/m 10,5 km/h (2 Bft) 95,74 %
13.08.2017 12:16 19,4 C 28,3 C 23,3 C 86 % 0 lf 1019,7 hPa 0,0 l/m 0 min 0 min 194 W/m 10,5 km/h (2 Bft) 97,87 %
13.08.2017 12:18 19,4 C 27,8 C 23,3 C 85 % 0 lf 1019,7 hPa 0,0 l/m 0 min 0 min 102 W/m 8,4 km/h (2 Bft) 97,87 %
13.08.2017 12:20 19,6 C 29,4 C 23,9 C 84 % 0 lf 1019,6 hPa 0,0 l/m 2 min 0 min 405 W/m 10,5 km/h (2 Bft) 97,87 %
13.08.2017 12:22 19,7 C 30,0 C 24,4 C 85 % 0 lf 1019,7 hPa 0,0 l/m 2 min 0 min 551 W/m 8,4 km/h (2 Bft) 91,49 %
13.08.2017 12:24 19,8 C 28,9 C 23,9 C 84 % 0 lf 1019,7 hPa 0,0 l/m 2 min 0 min 452 W/m 12,6 km/h (3 Bft) 97,83 %
13.08.2017 12:26 20,0 C 30,0 C 23,9 C 83 % 0 lf 1019,7 hPa 0,0 l/m 0 min 0 min 362 W/m 10,5 km/h (2 Bft) 95,74 %
13.08.2017 12:28 20,1 C 30,0 C 24,4 C 83 % 0 lf 1019,6 hPa 0,0 l/m 2 min 0 min 530 W/m 10,5 km/h (2 Bft) 91,49 %
13.08.2017 12:30 20,2 C 28,9 C 24,4 C 83 % 0 lf 1019,7 hPa 0,0 l/m 2 min 0 min 527 W/m 12,6 km/h (3 Bft) 95,74 %
13.08.2017 12:32 20,3 C 30,6 C 24,4 C 82 % 0 lf 1019,7 hPa 0,0 l/m 2 min 0 min 498 W/m 16,7 km/h (3 Bft) 89,58 %
13.08.2017 12:34 20,4 C 32,2 C 25,0 C 82 % 0 lf 1019,6 hPa 0,0 l/m 2 min 0 min 454 W/m 12,6 km/h (3 Bft) 93,62 %
13.08.2017 12:36 20,4 C 32,2 C 24,4 C 80 % 0 lf 1019,7 hPa 0,0 l/m 2 min 0 min 406 W/m 16,7 km/h (3 Bft) 93,75 %
13.08.2017 12:38 20,5 C 30,6 C 23,3 C 79 % 0 lf 1019,7 hPa 0,0 l/m 2 min 0 min 380 W/m 16,7 km/h (3 Bft) 95,74 %
13.08.2017 12:40 20,6 C 28,3 C 22,2 C 79 % 0 lf 1019,6 hPa 0,0 l/m 0 min 0 min 333 W/m 12,6 km/h (3 Bft) 95,74 %
13.08.2017 12:42 20,6 C 25,6 C 21,1 C 79 % 0 lf 1019,7 hPa 0,0 l/m 0 min 0 min 80 W/m 12,6 km/h (3 Bft) 95,74 %
13.08.2017 12:44 20,6 C 24,4 C 20,6 C 78 % 0 lf 1019,7 hPa 0,0 l/m 0 min 0 min 62 W/m 14,6 km/h (3 Bft) 95,74 %
13.08.2017 12:46 20,6 C 27,8 C 21,1 C 79 % 0 lf 1019,7 hPa 0,0 l/m 0 min 0 min 185 W/m 10,5 km/h (2 Bft) 89,13 %
13.08.2017 12:48 20,6 C 29,4 C 21,7 C 79 % 0 lf 1019,5 hPa 0,0 l/m 0 min 0 min 340 W/m 8,4 km/h (2 Bft) 95,74 %
13.08.2017 12:50 20,7 C 31,7 C 22,8 C 78 % 0 lf 1019,6 hPa 0,0 l/m 0 min 0 min 348 W/m 10,5 km/h (2 Bft) 95,74 %
13.08.2017 12:52 20,7 C 31,7 C 22,8 C 78 % 0 lf 1019,6 hPa 0,0 l/m 0 min 0 min 355 W/m 6,3 km/h (2 Bft) 97,87 %
13.08.2017 12:54 20,8 C 30,6 C 22,8 C 78 % 0 lf 1019,6 hPa 0,0 l/m 0 min 0 min 370 W/m 14,6 km/h (3 Bft) 95,74 %
13.08.2017 12:56 20,9 C 26,7 C 22,2 C 76 % 0 lf 1019,6 hPa 0,0 l/m 0 min 0 min 165 W/m 14,6 km/h (3 Bft) 95,74 %
13.08.2017 12:58 20,9 C 25,6 C 21,7 C 76 % 0 lf 1019,5 hPa 0,0 l/m 0 min 0 min 82 W/m 14,6 km/h (3 Bft) 91,49 %
13.08.2017 13:00 20,9 C 28,3 C 22,8 C 77 % 0 lf 1019,5 hPa 0,0 l/m 0 min 0 min 248 W/m 10,5 km/h (2 Bft) 91,30 %
13.08.2017 13:02 21,0 C 29,4 C 22,8 C 76 % 0 lf 1019,6 hPa 0,0 l/m 0 min 0 min 363 W/m 12,6 km/h (3 Bft) 93,62 %
13.08.2017 13:04 21,1 C 27,2 C 22,8 C 75 % 0 lf 1019,6 hPa 0,0 l/m 0 min 0 min 356 W/m 14,6 km/h (3 Bft) 93,62 %
13.08.2017 13:06 21,1 C 26,1 C 21,7 C 74 % 0 lf 1019,6 hPa 0,0 l/m 0 min 0 min 195 W/m 16,7 km/h (3 Bft) 95,74 %
13.08.2017 13:08 21,2 C 27,8 C 22,8 C 76 % 0 lf 1019,6 hPa 0,0 l/m 0 min 0 min 164 W/m 10,5 km/h (2 Bft) 95,74 %
13.08.2017 13:10 21,2 C 26,1 C 22,2 C 75 % 0 lf 1019,6 hPa 0,0 l/m 0 min 0 min 214 W/m 8,4 km/h (2 Bft) 93,62 %
13.08.2017 13:12 21,2 C 26,7 C 22,2 C 74 % 0 lf 1019,5 hPa 0,0 l/m 0 min 0 min 65 W/m 10,5 km/h (2 Bft) 97,83 %
13.08.2017 13:14 21,3 C 28,9 C 22,8 C 74 % 0 lf 1019,5 hPa 0,0 l/m 0 min 0 min 274 W/m 14,6 km/h (3 Bft) 97,87 %
13.08.2017 13:16 21,3 C 30,0 C 22,8 C 73 % 0 lf 1019,5 hPa 0,0 l/m 0 min 0 min 341 W/m 10,5 km/h (2 Bft) 95,74 %
13.08.2017 13:18 21,4 C 30,0 C 22,8 C 72 % 0 lf 1019,4 hPa 0,0 l/m 0 min 0 min 369 W/m 8,4 km/h (2 Bft) 95,74 %
13.08.2017 13:20 21,6 C 31,1 C 22,8 C 72 % 0 lf 1019,4 hPa 0,0 l/m 2 min 0 min 427 W/m 8,4 km/h (2 Bft) 97,87 %
13.08.2017 13:22 21,7 C 32,2 C 22,8 C 73 % 0 lf 1019,5 hPa 0,0 l/m 2 min 0 min 429 W/m 14,6 km/h (3 Bft) 97,83 %
13.08.2017 13:24 21,9 C 33,9 C 22,8 C 75 % 0 lf 1019,5 hPa 0,0 l/m 2 min 0 min 435 W/m 10,5 km/h (2 Bft) 95,74 %
13.08.2017 13:26 22,0 C 34,4 C 23,3 C 74 % 0 lf 1019,5 hPa 0,0 l/m 2 min 0 min 445 W/m 6,3 km/h (2 Bft) 97,87 %
13.08.2017 13:28 22,2 C 32,2 C 23,3 C 74 % 0 lf 1019,5 hPa 0,0 l/m 2 min 0 min 438 W/m 12,6 km/h (3 Bft) 97,87 %
13.08.2017 13:30 22,2 C 30,6 C 22,8 C 72 % 0 lf 1019,5 hPa 0,0 l/m 2 min 0 min 438 W/m 12,6 km/h (3 Bft) 97,87 %
13.08.2017 13:32 22,3 C 27,8 C 22,2 C 71 % 0 lf 1019,4 hPa 0,0 l/m 0 min 0 min 150 W/m 12,6 km/h (3 Bft) 97,87 %
13.08.2017 13:34 22,3 C 28,9 C 22,2 C 70 % 0 lf 1019,5 hPa 0,0 l/m 0 min 0 min 119 W/m 12,6 km/h (3 Bft) 97,83 %
13.08.2017 13:36 22,3 C 30,6 C 22,8 C 70 % 0 lf 1019,4 hPa 0,0 l/m 2 min 0 min 445 W/m 10,5 km/h (2 Bft) 97,14 %
13.08.2017 13:38 22,4 C 30,6 C 22,8 C 69 % 0 lf 1019,3 hPa 0,0 l/m 2 min 0 min 453 W/m 12,6 km/h (3 Bft) 95,74 %
13.08.2017 13:40 22,4 C 30,0 C 22,2 C 69 % 0 lf 1019,3 hPa 0,0 l/m 2 min 0 min 456 W/m 8,4 km/h (2 Bft) 97,87 %
13.08.2017 13:42 22,5 C 31,1 C 22,8 C 71 % 0 lf 1019,3 hPa 0,0 l/m 2 min 0 min 436 W/m 10,5 km/h (2 Bft) 98,15 %
13.08.2017 13:44 22,6 C 31,1 C 22,8 C 70 % 0 lf 1019,3 hPa 0,0 l/m 2 min 0 min 421 W/m 14,6 km/h (3 Bft) 95,74 %
13.08.2017 13:46 22,6 C 30,0 C 22,2 C 69 % 0 lf 1019,3 hPa 0,0 l/m 2 min 0 min 423 W/m 16,7 km/h (3 Bft) 93,48 %
13.08.2017 13:48 22,7 C 30,6 C 22,2 C 68 % 0 lf 1019,3 hPa 0,0 l/m 2 min 0 min 428 W/m 16,7 km/h (3 Bft) 95,74 %
13.08.2017 13:50 22,7 C 31,7 C 22,8 C 68 % 0 lf 1019,3 hPa 0,0 l/m 2 min 0 min 428 W/m 14,6 km/h (3 Bft) 97,87 %
13.08.2017 13:52 22,8 C 30,6 C 22,2 C 66 % 0 lf 1019,4 hPa 0,0 l/m 2 min 0 min 420 W/m 10,5 km/h (2 Bft) 95,74 %
13.08.2017 13:54 22,8 C 28,3 C 22,2 C 66 % 0 lf 1019,3 hPa 0,0 l/m 0 min 0 min 347 W/m 10,5 km/h (2 Bft) 97,87 %
13.08.2017 13:56 22,8 C 28,3 C 22,2 C 66 % 0 lf 1019,3 hPa 0,0 l/m 0 min 0 min 235 W/m 10,5 km/h (2 Bft) 95,74 %
13.08.2017 13:58 22,9 C 31,1 C 22,8 C 68 % 0 lf 1019,3 hPa 0,0 l/m 2 min 0 min 457 W/m 10,5 km/h (2 Bft) 97,87 %
13.08.2017 14:00 23,0 C 30,6 C 23,3 C 68 % 0 lf 1019,3 hPa 0,0 l/m 2 min 0 min 438 W/m 10,5 km/h (2 Bft) 97,83 %
13.08.2017 14:02 23,0 C 28,3 C 22,8 C 66 % 0 lf 1019,3 hPa 0,0 l/m 0 min 0 min 154 W/m 14,6 km/h (3 Bft) 95,92 %
13.08.2017 14:04 23,0 C 28,9 C 22,8 C 64 % 0 lf 1019,3 hPa 0,0 l/m 0 min 0 min 320 W/m 10,5 km/h (2 Bft) 95,74 %
13.08.2017 14:06 23,0 C 28,3 C 23,3 C 65 % 0 lf 1019,2 hPa 0,0 l/m 2 min 0 min 474 W/m 12,6 km/h (3 Bft) 98,00 %
13.08.2017 14:08 23,0 C 28,3 C 23,3 C 65 % 0 lf 1019,2 hPa 0,0 l/m 2 min 0 min 474 W/m 12,6 km/h (3 Bft) 97,83 %
13.08.2017 14:10 22,9 C 27,8 C 23,3 C 64 % 0 lf 1019,3 hPa 0,0 l/m 2 min 0 min 474 W/m 12,6 km/h (3 Bft) 93,62 %
13.08.2017 14:12 22,9 C 28,3 C 24,4 C 65 % 0 lf 1019,2 hPa 0,0 l/m 2 min 0 min 463 W/m 8,4 km/h (2 Bft) 97,87 %
13.08.2017 14:14 23,0 C 30,6 C 25,6 C 68 % 0 lf 1019,3 hPa 0,0 l/m 2 min 0 min 451 W/m 8,4 km/h (2 Bft) 100,00 %
13.08.2017 14:16 23,1 C 30,6 C 26,1 C 67 % 0 lf 1019,2 hPa 0,0 l/m 2 min 0 min 443 W/m 8,4 km/h (2 Bft) 100,00 %
13.08.2017 14:18 23,1 C 29,4 C 25,6 C 67 % 0 lf 1019,2 hPa 0,0 l/m 0 min 0 min 340 W/m 10,5 km/h (2 Bft) 97,87 %
13.08.2017 14:20 23,0 C 27,2 C 23,9 C 65 % 0 lf 1019,2 hPa 0,0 l/m 0 min 0 min 92 W/m 8,4 km/h (2 Bft) 97,83 %
13.08.2017 14:22 23,0 C 26,7 C 22,8 C 65 % 0 lf 1019,2 hPa 0,0 l/m 0 min 0 min 96 W/m 8,4 km/h (2 Bft) 97,87 %
13.08.2017 14:24 22,9 C 26,7 C 23,3 C 66 % 0 lf 1019,2 hPa 0,0 l/m 0 min 0 min 113 W/m 10,5 km/h (2 Bft) 97,87 %
13.08.2017 14:26 22,9 C 28,9 C 26,1 C 67 % 0 lf 1019,2 hPa 0,0 l/m 0 min 0 min 276 W/m 14,6 km/h (3 Bft) 97,87 %
13.08.2017 14:28 22,9 C 28,3 C 26,7 C 66 % 0 lf 1019,3 hPa 0,0 l/m 2 min 0 min 407 W/m 12,6 km/h (3 Bft) 97,87 %
13.08.2017 14:30 22,9 C 27,2 C 25,0 C 66 % 0 lf 1019,3 hPa 0,0 l/m 0 min 0 min 106 W/m 16,7 km/h (3 Bft) 97,87 %
13.08.2017 14:32 22,9 C 26,1 C 23,9 C 66 % 0 lf 1019,4 hPa 0,0 l/m 0 min 0 min 115 W/m 14,6 km/h (3 Bft) 95,74 %
13.08.2017 14:34 22,8 C 25,0 C 23,3 C 66 % 0 lf 1019,3 hPa 0,0 l/m 0 min 0 min 129 W/m 10,5 km/h (2 Bft) 97,87 %
13.08.2017 14:36 22,7 C 25,6 C 23,9 C 66 % 0 lf 1019,3 hPa 0,0 l/m 0 min 0 min 164 W/m 10,5 km/h (2 Bft) 94,59 %
13.08.2017 14:38 22,6 C 25,0 C 23,3 C 65 % 0 lf 1019,3 hPa 0,0 l/m 0 min 0 min 145 W/m 14,6 km/h (3 Bft) 95,74 %
13.08.2017 14:40 22,6 C 25,0 C 22,8 C 66 % 0 lf 1019,3 hPa 0,0 l/m 0 min 0 min 140 W/m 12,6 km/h (3 Bft) 95,74 %
13.08.2017 14:42 22,5 C 26,1 C 23,3 C 66 % 0 lf 1019,3 hPa 0,0 l/m 0 min 0 min 146 W/m 12,6 km/h (3 Bft) 97,87 %
13.08.2017 14:44 22,5 C 28,3 C 25,6 C 67 % 0 lf 1019,3 hPa 0,0 l/m 0 min 0 min 167 W/m 14,6 km/h (3 Bft) 97,87 %
13.08.2017 14:46 22,5 C 30,0 C 27,2 C 67 % 0 lf 1019,3 hPa 0,0 l/m 2 min 0 min 752 W/m 16,7 km/h (3 Bft) 95,74 %
13.08.2017 14:48 22,6 C 30,0 C 26,7 C 67 % 0 lf 1019,4 hPa 0,0 l/m 2 min 0 min 925 W/m 14,6 km/h (3 Bft) 97,83 %
13.08.2017 14:50 22,6 C 29,4 C 27,8 C 68 % 0 lf 1019,3 hPa 0,0 l/m 2 min 0 min 877 W/m 8,4 km/h (2 Bft) 91,53 %
13.08.2017 14:52 22,7 C 30,6 C 28,9 C 69 % 0 lf 1019,3 hPa 0,0 l/m 0 min 0 min 332 W/m 14,6 km/h (3 Bft) 97,14 %
13.08.2017 14:54 22,8 C 31,1 C 30,0 C 67 % 0 lf 1019,3 hPa 0,0 l/m 2 min 0 min 809 W/m 8,4 km/h (2 Bft) 93,62 %
13.08.2017 14:56 22,9 C 31,1 C 31,1 C 67 % 0 lf 1019,3 hPa 0,0 l/m 2 min 0 min 933 W/m 12,6 km/h (3 Bft) 95,74 %
13.08.2017 14:58 23,1 C 32,8 C 31,7 C 67 % 0 lf 1019,3 hPa 0,0 l/m 2 min 0 min 929 W/m 14,6 km/h (3 Bft) 95,65 %
13.08.2017 15:00 23,2 C 32,8 C 31,1 C 64 % 0 lf 1019,3 hPa 0,0 l/m 2 min 0 min 930 W/m 14,6 km/h (3 Bft) 93,62 %
13.08.2017 15:02 23,3 C 32,8 C 31,7 C 65 % 0 lf 1019,3 hPa 0,0 l/m 2 min 0 min 932 W/m 16,7 km/h (3 Bft) 95,74 %
13.08.2017 15:04 23,4 C 31,1 C 31,1 C 63 % 0 lf 1019,3 hPa 0,0 l/m 2 min 0 min 956 W/m 20,9 km/h (4 Bft) 95,74 %
13.08.2017 15:06 23,5 C 29,4 C 28,9 C 62 % 0 lf 1019,3 hPa 0,0 l/m 2 min 0 min 466 W/m 16,7 km/h (3 Bft) 93,62 %
13.08.2017 15:08 23,4 C 27,2 C 27,2 C 61 % 0 lf 1019,3 hPa 0,0 l/m 0 min 0 min 327 W/m 10,5 km/h (2 Bft) 95,74 %
13.08.2017 15:10 23,4 C 26,7 C 26,1 C 62 % 0 lf 1019,4 hPa 0,0 l/m 0 min 0 min 338 W/m 10,5 km/h (2 Bft) 93,62 %
13.08.2017 15:12 23,4 C 26,1 C 25,6 C 63 % 0 lf 1019,4 hPa 0,0 l/m 0 min 0 min 314 W/m 10,5 km/h (2 Bft) 95,65 %
13.08.2017 15:14 23,3 C 26,1 C 25,0 C 63 % 0 lf 1019,4 hPa 0,0 l/m 0 min 0 min 312 W/m 8,4 km/h (2 Bft) 91,49 %
13.08.2017 15:16 23,3 C 25,6 C 24,4 C 64 % 0 lf 1019,4 hPa 0,0 l/m 0 min 0 min 315 W/m 14,6 km/h (3 Bft) 95,74 %
13.08.2017 15:18 23,2 C 25,0 C 23,9 C 63 % 0 lf 1019,4 hPa 0,0 l/m 0 min 0 min 343 W/m 16,7 km/h (3 Bft) 95,74 %
13.08.2017 15:20 23,2 C 25,0 C 23,9 C 64 % 0 lf 1019,4 hPa 0,0 l/m 0 min 0 min 336 W/m 16,7 km/h (3 Bft) 93,62 %
13.08.2017 15:22 23,1 C 24,4 C 23,3 C 63 % 0 lf 1019,4 hPa 0,0 l/m 0 min 0 min 296 W/m 23,0 km/h (4 Bft) 95,65 %
13.08.2017 15:24 22,9 C 24,4 C 23,3 C 62 % 0 lf 1019,4 hPa 0,0 l/m 0 min 0 min 303 W/m 18,8 km/h (3 Bft) 95,74 %
13.08.2017 15:26 22,9 C 24,4 C 23,3 C 63 % 0 lf 1019,5 hPa 0,0 l/m 0 min 0 min 328 W/m 14,6 km/h (3 Bft) 93,62 %
13.08.2017 15:28 22,8 C 25,0 C 23,9 C 63 % 0 lf 1019,5 hPa 0,0 l/m 2 min 0 min 388 W/m 14,6 km/h (3 Bft) 97,87 %
13.08.2017 15:30 22,7 C 25,0 C 23,9 C 64 % 0 lf 1019,4 hPa 0,0 l/m 2 min 0 min 380 W/m 16,7 km/h (3 Bft) 97,87 %
13.08.2017 15:32 22,7 C 25,0 C 23,9 C 65 % 0 lf 1019,4 hPa 0,0 l/m 0 min 0 min 313 W/m 16,7 km/h (3 Bft) 95,74 %
13.08.2017 15:34 22,7 C 25,6 C 23,9 C 66 % 0 lf 1019,5 hPa 0,0 l/m 0 min 0 min 289 W/m 16,7 km/h (3 Bft) 97,83 %
13.08.2017 15:36 22,7 C 25,0 C 23,9 C 65 % 0 lf 1019,5 hPa 0,0 l/m 0 min 0 min 277 W/m 18,8 km/h (3 Bft) 95,74 %
13.08.2017 15:38 22,6 C 25,0 C 23,3 C 65 % 0 lf 1019,5 hPa 0,0 l/m 0 min 0 min 263 W/m 14,6 km/h (3 Bft) 95,74 %
13.08.2017 15:40 22,6 C 24,4 C 23,3 C 66 % 0 lf 1019,5 hPa 0,0 l/m 0 min 0 min 251 W/m 10,5 km/h (2 Bft) 97,87 %
13.08.2017 15:42 22,6 C 24,4 C 22,8 C 65 % 0 lf 1019,5 hPa 0,0 l/m 0 min 0 min 239 W/m 8,4 km/h (2 Bft) 95,74 %
13.08.2017 15:44 22,5 C 24,4 C 22,8 C 64 % 0 lf 1019,6 hPa 0,0 l/m 0 min 0 min 229 W/m 10,5 km/h (2 Bft) 97,87 %
13.08.2017 15:46 22,4 C 23,9 C 22,8 C 65 % 0 lf 1019,5 hPa 0,0 l/m 0 min 0 min 226 W/m 8,4 km/h (2 Bft) 97,83 %
13.08.2017 15:48 22,4 C 23,9 C 22,2 C 65 % 0 lf 1019,5 hPa 0,0 l/m 0 min 0 min 220 W/m 12,6 km/h (3 Bft) 93,62 %
13.08.2017 15:50 22,4 C 23,3 C 22,2 C 65 % 0 lf 1019,6 hPa 0,0 l/m 0 min 0 min 210 W/m 12,6 km/h (3 Bft) 96,23 %
13.08.2017 15:52 22,3 C 23,3 C 21,7 C 66 % 0 lf 1019,6 hPa 0,0 l/m 0 min 0 min 207 W/m 20,9 km/h (4 Bft) 97,56 %
13.08.2017 15:54 22,3 C 23,3 C 21,7 C 68 % 0 lf 1019,6 hPa 0,0 l/m 0 min 0 min 218 W/m 18,8 km/h (3 Bft) 97,87 %
13.08.2017 15:56 22,2 C 24,4 C 23,3 C 68 % 0 lf 1019,6 hPa 0,0 l/m 0 min 0 min 313 W/m 20,9 km/h (4 Bft) 97,87 %
13.08.2017 15:58 22,2 C 26,1 C 24,4 C 69 % 0 lf 1019,7 hPa 0,0 l/m 2 min 0 min 592 W/m 16,7 km/h (3 Bft) 95,65 %
13.08.2017 16:00 22,2 C 27,2 C 25,6 C 70 % 0 lf 1019,6 hPa 0,0 l/m 2 min 0 min 599 W/m 23,0 km/h (4 Bft) 95,74 %
13.08.2017 16:02 22,2 C 28,3 C 26,7 C 70 % 0 lf 1019,7 hPa 0,0 l/m 2 min 0 min 759 W/m 18,8 km/h (3 Bft) 97,87 %
13.08.2017 16:04 22,2 C 28,9 C 27,8 C 71 % 0 lf 1019,6 hPa 0,0 l/m 2 min 0 min 788 W/m 18,8 km/h (3 Bft) 93,62 %
13.08.2017 16:06 22,3 C 27,2 C 26,7 C 70 % 0 lf 1019,6 hPa 0,0 l/m 2 min 0 min 773 W/m 29,3 km/h (5 Bft) 98,18 %
13.08.2017 16:08 22,3 C 26,1 C 25,0 C 69 % 0 lf 1019,7 hPa 0,0 l/m 0 min 0 min 323 W/m 16,7 km/h (3 Bft) 97,87 %
13.08.2017 16:10 22,3 C 26,1 C 25,0 C 70 % 0 lf 1019,7 hPa 0,0 l/m 2 min 0 min 379 W/m 16,7 km/h (3 Bft) 97,87 %
13.08.2017 16:12 22,3 C 25,6 C 25,0 C 70 % 0 lf 1019,6 hPa 0,0 l/m 2 min 0 min 464 W/m 20,9 km/h (4 Bft) 97,92 %
13.08.2017 16:14 22,3 C 25,0 C 23,9 C 69 % 0 lf 1019,6 hPa 0,0 l/m 2 min 0 min 357 W/m 18,8 km/h (3 Bft) 95,74 %
13.08.2017 16:16 22,3 C 25,6 C 23,9 C 69 % 0 lf 1019,6 hPa 0,0 l/m 2 min 0 min 376 W/m 14,6 km/h (3 Bft) 100,00 %
13.08.2017 16:18 22,2 C 25,0 C 23,9 C 69 % 0 lf 1019,7 hPa 0,0 l/m 2 min 0 min 507 W/m 16,7 km/h (3 Bft) 100,00 %
13.08.2017 16:20 22,2 C 24,4 C 23,3 C 69 % 0 lf 1019,6 hPa 0,0 l/m 2 min 0 min 396 W/m 16,7 km/h (3 Bft) 97,87 %
13.08.2017 16:22 22,1 C 24,4 C 23,3 C 70 % 0 lf 1019,6 hPa 0,0 l/m 2 min 0 min 363 W/m 18,8 km/h (3 Bft) 100,00 %
13.08.2017 16:24 22,1 C 24,4 C 22,8 C 70 % 0 lf 1019,7 hPa 0,0 l/m 2 min 0 min 382 W/m 18,8 km/h (3 Bft) 95,74 %
13.08.2017 16:26 22,0 C 24,4 C 23,3 C 70 % 0 lf 1019,6 hPa 0,0 l/m 2 min 0 min 607 W/m 20,9 km/h (4 Bft) 100,00 %
13.08.2017 16:28 22,0 C 25,0 C 22,8 C 70 % 0 lf 1019,7 hPa 0,0 l/m 2 min 0 min 534 W/m 20,9 km/h (4 Bft) 97,87 %
13.08.2017 16:30 22,0 C 26,1 C 23,3 C 71 % 0 lf 1019,6 hPa 0,0 l/m 2 min 0 min 634 W/m 16,7 km/h (3 Bft) 100,00 %
13.08.2017 16:32 22,0 C 26,1 C 23,3 C 71 % 0 lf 1019,7 hPa 0,0 l/m 2 min 0 min 652 W/m 16,7 km/h (3 Bft) 95,83 %
13.08.2017 16:34 22,0 C 25,0 C 23,3 C 71 % 0 lf 1019,7 hPa 0,0 l/m 2 min 0 min 375 W/m 16,7 km/h (3 Bft) 97,87 %
13.08.2017 16:36 22,1 C 25,0 C 23,3 C 72 % 0 lf 1019,6 hPa 0,0 l/m 0 min 0 min 293 W/m 14,6 km/h (3 Bft) 94,44 %
13.08.2017 16:38 22,1 C 25,0 C 23,3 C 71 % 0 lf 1019,7 hPa 0,0 l/m 0 min 0 min 298 W/m 14,6 km/h (3 Bft) 97,87 %
13.08.2017 16:40 22,1 C 24,4 C 22,8 C 70 % 0 lf 1019,6 hPa 0,0 l/m 0 min 0 min 282 W/m 12,6 km/h (3 Bft) 97,87 %
13.08.2017 16:42 22,1 C 23,9 C 22,8 C 69 % 0 lf 1019,6 hPa 0,0 l/m 0 min 0 min 249 W/m 12,6 km/h (3 Bft) 93,62 %
13.08.2017 16:44 22,1 C 24,4 C 22,2 C 69 % 0 lf 1019,7 hPa 0,0 l/m 0 min 0 min 251 W/m 16,7 km/h (3 Bft) 95,65 %
13.08.2017 16:46 22,1 C 25,0 C 23,3 C 71 % 0 lf 1019,6 hPa 0,0 l/m 2 min 0 min 593 W/m 8,4 km/h (2 Bft) 97,87 %
13.08.2017 16:48 22,1 C 25,6 C 23,3 C 70 % 0 lf 1019,6 hPa 0,0 l/m 2 min 0 min 649 W/m 14,6 km/h (3 Bft) 97,87 %
13.08.2017 16:50 22,1 C 25,0 C 23,3 C 69 % 0 lf 1019,7 hPa 0,0 l/m 2 min 0 min 560 W/m 12,6 km/h (3 Bft) 97,87 %
13.08.2017 16:52 22,1 C 24,4 C 22,8 C 68 % 0 lf 1019,7 hPa 0,0 l/m 2 min 0 min 325 W/m 14,6 km/h (3 Bft) 95,74 %
13.08.2017 16:54 22,2 C 24,4 C 23,3 C 68 % 0 lf 1019,7 hPa 0,0 l/m 2 min 0 min 423 W/m 18,8 km/h (3 Bft) 91,49 %
13.08.2017 16:56 22,2 C 24,4 C 23,3 C 67 % 0 lf 1019,7 hPa 0,0 l/m 2 min 0 min 533 W/m 18,8 km/h (3 Bft) 95,65 %
13.08.2017 16:58 22,2 C 24,4 C 23,9 C 68 % 0 lf 1019,7 hPa 0,0 l/m 2 min 0 min 513 W/m 14,6 km/h (3 Bft) 95,74 %
13.08.2017 17:00 22,3 C 24,4 C 23,9 C 68 % 0 lf 1019,6 hPa 0,0 l/m 2 min 0 min 474 W/m 14,6 km/h (3 Bft) 89,36 %
13.08.2017 17:02 22,3 C 24,4 C 23,9 C 67 % 0 lf 1019,6 hPa 0,0 l/m 2 min 0 min 387 W/m 14,6 km/h (3 Bft) 93,62 %
13.08.2017 17:04 22,4 C 24,4 C 23,9 C 69 % 0 lf 1019,6 hPa 0,0 l/m 2 min 0 min 461 W/m 14,6 km/h (3 Bft) 93,62 %
13.08.2017 17:06 22,4 C 24,4 C 23,9 C 67 % 0 lf 1019,7 hPa 0,0 l/m 2 min 0 min 527 W/m 16,7 km/h (3 Bft) 91,49 %
13.08.2017 17:08 22,4 C 23,9 C 23,3 C 66 % 0 lf 1019,7 hPa 0,0 l/m 2 min 0 min 404 W/m 14,6 km/h (3 Bft) 93,48 %
13.08.2017 17:10 22,4 C 24,4 C 23,3 C 65 % 0 lf 1019,8 hPa 0,0 l/m 2 min 0 min 386 W/m 18,8 km/h (3 Bft) 91,49 %
13.08.2017 17:12 22,4 C 24,4 C 23,9 C 66 % 0 lf 1019,7 hPa 0,0 l/m 2 min 0 min 408 W/m 8,4 km/h (2 Bft) 93,62 %
13.08.2017 17:14 22,4 C 24,4 C 23,3 C 65 % 0 lf 1019,7 hPa 0,0 l/m 2 min 0 min 391 W/m 14,6 km/h (3 Bft) 93,62 %
13.08.2017 17:16 22,4 C 24,4 C 23,3 C 64 % 0 lf 1019,7 hPa 0,0 l/m 2 min 0 min 515 W/m 12,6 km/h (3 Bft) 93,62 %
13.08.2017 17:18 22,4 C 25,0 C 23,3 C 65 % 0 lf 1019,7 hPa 0,0 l/m 2 min 0 min 637 W/m 12,6 km/h (3 Bft) 93,62 %
13.08.2017 17:20 22,4 C 25,0 C 23,9 C 66 % 0 lf 1019,6 hPa 0,0 l/m 2 min 0 min 621 W/m 12,6 km/h (3 Bft) 95,65 %
13.08.2017 17:22 22,5 C 25,0 C 23,9 C 66 % 0 lf 1019,6 hPa 0,0 l/m 2 min 0 min 642 W/m 14,6 km/h (3 Bft) 91,49 %
13.08.2017 17:24 22,5 C 25,0 C 23,3 C 65 % 0 lf 1019,6 hPa 0,0 l/m 2 min 0 min 581 W/m 16,7 km/h (3 Bft) 93,62 %
13.08.2017 17:26 22,6 C 24,4 C 23,3 C 66 % 0 lf 1019,7 hPa 0,0 l/m 2 min 0 min 529 W/m 14,6 km/h (3 Bft) 93,62 %
13.08.2017 17:28 22,6 C 24,4 C 22,8 C 67 % 0 lf 1019,7 hPa 0,0 l/m 2 min 0 min 307 W/m 10,5 km/h (2 Bft) 93,62 %
13.08.2017 17:30 22,6 C 24,4 C 22,8 C 67 % 0 lf 1019,6 hPa 0,0 l/m 2 min 0 min 370 W/m 12,6 km/h (3 Bft) 91,30 %
13.08.2017 17:32 22,6 C 24,4 C 22,8 C 67 % 0 lf 1019,7 hPa 0,0 l/m 2 min 0 min 487 W/m 14,6 km/h (3 Bft) 95,74 %
13.08.2017 17:34 22,6 C 24,4 C 22,8 C 67 % 0 lf 1019,7 hPa 0,0 l/m 2 min 0 min 422 W/m 8,4 km/h (2 Bft) 91,49 %
13.08.2017 17:36 22,6 C 24,4 C 22,8 C 67 % 0 lf 1019,6 hPa 0,0 l/m 2 min 0 min 535 W/m 12,6 km/h (3 Bft) 100,00 %
13.08.2017 17:38 22,6 C 24,4 C 22,2 C 66 % 0 lf 1019,6 hPa 0,0 l/m 2 min 0 min 444 W/m 12,6 km/h (3 Bft) 100,00 %
13.08.2017 17:40 22,6 C 23,9 C 21,7 C 65 % 0 lf 1019,6 hPa 0,0 l/m 2 min 0 min 351 W/m 14,6 km/h (3 Bft) 100,00 %
13.08.2017 17:42 22,6 C 23,9 C 21,7 C 65 % 0 lf 1019,6 hPa 0,0 l/m 2 min 0 min 435 W/m 12,6 km/h (3 Bft) 97,92 %
13.08.2017 17:44 22,5 C 23,9 C 21,7 C 64 % 0 lf 1019,6 hPa 0,0 l/m 2 min 0 min 244 W/m 14,6 km/h (3 Bft) 100,00 %
13.08.2017 17:46 22,5 C 23,3 C 21,7 C 64 % 0 lf 1019,6 hPa 0,0 l/m 2 min 0 min 248 W/m 10,5 km/h (2 Bft) 100,00 %
13.08.2017 17:48 22,5 C 23,9 C 21,7 C 63 % 0 lf 1019,6 hPa 0,0 l/m 2 min 0 min 248 W/m 10,5 km/h (2 Bft) 100,00 %
13.08.2017 17:50 22,4 C 23,9 C 21,7 C 63 % 0 lf 1019,6 hPa 0,0 l/m 2 min 0 min 447 W/m 10,5 km/h (2 Bft) 95,74 %
13.08.2017 17:52 22,4 C 23,9 C 21,7 C 64 % 0 lf 1019,7 hPa 0,0 l/m 2 min 0 min 377 W/m 10,5 km/h (2 Bft) 97,87 %
13.08.2017 17:54 22,4 C 23,9 C 21,7 C 64 % 0 lf 1019,7 hPa 0,0 l/m 2 min 0 min 279 W/m 10,5 km/h (2 Bft) 100,00 %
13.08.2017 17:56 22,4 C 23,3 C 21,1 C 63 % 0 lf 1019,7 hPa 0,0 l/m 2 min 0 min 247 W/m 16,7 km/h (3 Bft) 97,87 %
13.08.2017 17:58 22,3 C 23,3 C 21,1 C 62 % 0 lf 1019,7 hPa 0,0 l/m 2 min 0 min 289 W/m 10,5 km/h (2 Bft) 97,14 %
13.08.2017 18:00 22,3 C 22,8 C 21,1 C 62 % 0 lf 1019,7 hPa 0,0 l/m 2 min 0 min 365 W/m 6,3 km/h (2 Bft) 100,00 %
13.08.2017 18:02 22,2 C 22,8 C 21,1 C 62 % 0 lf 1019,7 hPa 0,0 l/m 2 min 0 min 304 W/m 14,6 km/h (3 Bft) 95,74 %
13.08.2017 18:04 22,2 C 22,8 C 21,1 C 62 % 0 lf 1019,8 hPa 0,0 l/m 2 min 0 min 350 W/m 10,5 km/h (2 Bft) 100,00 %
13.08.2017 18:06 22,1 C 22,8 C 21,1 C 61 % 0 lf 1019,8 hPa 0,0 l/m 2 min 0 min 320 W/m 12,6 km/h (3 Bft) 100,00 %
13.08.2017 18:10 22,0 C 23,3 C 21,1 C 62 % 0 lf 1019,7 hPa 0,0 l/m 4 min 0 min 400 W/m 10,5 km/h (2 Bft) 100,00 %
13.08.2017 18:12 21,9 C 23,3 C 21,1 C 62 % 0 lf 1019,7 hPa 0,0 l/m 2 min 0 min 411 W/m 10,5 km/h (2 Bft) 97,87 %
13.08.2017 18:14 21,9 C 23,3 C 21,1 C 62 % 0 lf 1019,7 hPa 0,0 l/m 2 min 0 min 411 W/m 12,6 km/h (3 Bft) 100,00 %
13.08.2017 18:16 21,9 C 23,3 C 21,1 C 62 % 0 lf 1019,8 hPa 0,0 l/m 2 min 0 min 400 W/m 12,6 km/h (3 Bft) 97,87 %
13.08.2017 18:18 21,9 C 23,3 C 21,1 C 63 % 0 lf 1019,7 hPa 0,0 l/m 2 min 0 min 406 W/m 10,5 km/h (2 Bft) 100,00 %
13.08.2017 18:20 21,9 C 23,3 C 21,1 C 62 % 0 lf 1019,8 hPa 0,0 l/m 2 min 0 min 392 W/m 14,6 km/h (3 Bft) 100,00 %
13.08.2017 18:22 21,9 C 22,8 C 20,6 C 62 % 0 lf 1019,7 hPa 0,0 l/m 2 min 0 min 371 W/m 10,5 km/h (2 Bft) 95,74 %
13.08.2017 18:24 21,8 C 22,8 C 20,6 C 63 % 0 lf 1019,7 hPa 0,0 l/m 2 min 0 min 360 W/m 10,5 km/h (2 Bft) 95,74 %
13.08.2017 18:26 21,8 C 22,8 C 20,6 C 62 % 0 lf 1019,7 hPa 0,0 l/m 2 min 0 min 343 W/m 14,6 km/h (3 Bft) 95,74 %
13.08.2017 18:28 21,8 C 22,8 C 20,6 C 61 % 0 lf 1019,7 hPa 0,0 l/m 2 min 0 min 354 W/m 8,4 km/h (2 Bft) 97,87 %
13.08.2017 18:30 21,7 C 22,8 C 20,6 C 61 % 0 lf 1019,7 hPa 0,0 l/m 2 min 0 min 339 W/m 10,5 km/h (2 Bft) 97,83 %
13.08.2017 18:32 21,7 C 22,8 C 20,6 C 62 % 0 lf 1019,6 hPa 0,0 l/m 2 min 0 min 276 W/m 8,4 km/h (2 Bft) 93,62 %
13.08.2017 18:34 21,7 C 22,8 C 20,6 C 62 % 0 lf 1019,6 hPa 0,0 l/m 2 min 0 min 328 W/m 8,4 km/h (2 Bft) 95,74 %
13.08.2017 18:36 21,7 C 22,8 C 20,6 C 63 % 0 lf 1019,7 hPa 0,0 l/m 2 min 0 min 262 W/m 10,5 km/h (2 Bft) 98,15 %
13.08.2017 18:38 21,7 C 22,8 C 20,6 C 63 % 0 lf 1019,7 hPa 0,0 l/m 2 min 0 min 187 W/m 8,4 km/h (2 Bft) 97,83 %
13.08.2017 18:40 21,7 C 22,8 C 20,6 C 63 % 0 lf 1019,7 hPa 0,0 l/m 2 min 0 min 264 W/m 8,4 km/h (2 Bft) 97,87 %
13.08.2017 18:42 21,7 C 22,2 C 20,0 C 63 % 0 lf 1019,6 hPa 0,0 l/m 2 min 0 min 261 W/m 12,6 km/h (3 Bft) 95,83 %
13.08.2017 18:44 21,7 C 22,2 C 20,0 C 63 % 0 lf 1019,6 hPa 0,0 l/m 0 min 0 min 144 W/m 10,5 km/h (2 Bft) 97,87 %
13.08.2017 18:46 21,7 C 22,2 C 20,0 C 62 % 0 lf 1019,6 hPa 0,0 l/m 0 min 0 min 128 W/m 8,4 km/h (2 Bft) 97,87 %
13.08.2017 18:48 21,6 C 21,7 C 20,0 C 62 % 0 lf 1019,7 hPa 0,0 l/m 2 min 0 min 179 W/m 8,4 km/h (2 Bft) 95,74 %
13.08.2017 18:50 21,6 C 21,7 C 20,0 C 63 % 0 lf 1019,7 hPa 0,0 l/m 0 min 0 min 152 W/m 10,5 km/h (2 Bft) 95,65 %
13.08.2017 18:52 21,6 C 21,7 C 19,4 C 63 % 0 lf 1019,6 hPa 0,0 l/m 2 min 0 min 184 W/m 8,4 km/h (2 Bft) 97,87 %
13.08.2017 18:54 21,6 C 21,7 C 19,4 C 64 % 0 lf 1019,6 hPa 0,0 l/m 0 min 0 min 107 W/m 10,5 km/h (2 Bft) 97,87 %
13.08.2017 18:56 21,6 C 21,1 C 19,4 C 64 % 0 lf 1019,6 hPa 0,0 l/m 0 min 0 min 92 W/m 12,6 km/h (3 Bft) 97,87 %
13.08.2017 18:58 21,5 C 21,1 C 19,4 C 64 % 0 lf 1019,6 hPa 0,0 l/m 0 min 0 min 101 W/m 12,6 km/h (3 Bft) 95,74 %
13.08.2017 19:00 21,5 C 21,1 C 19,4 C 64 % 0 lf 1019,6 hPa 0,0 l/m 0 min 0 min 106 W/m 12,6 km/h (3 Bft) 95,74 %
13.08.2017 19:02 21,4 C 21,1 C 19,4 C 64 % 0 lf 1019,6 hPa 0,0 l/m 0 min 0 min 124 W/m 10,5 km/h (2 Bft) 93,62 %
13.08.2017 19:04 21,4 C 21,1 C 18,9 C 63 % 0 lf 1019,6 hPa 0,0 l/m 2 min 0 min 144 W/m 10,5 km/h (2 Bft) 93,62 %
13.08.2017 19:06 21,3 C 20,6 C 18,9 C 62 % 0 lf 1019,6 hPa 0,0 l/m 0 min 0 min 104 W/m 10,5 km/h (2 Bft) 97,87 %
13.08.2017 19:08 21,3 C 20,6 C 18,9 C 61 % 0 lf 1019,6 hPa 0,0 l/m 0 min 0 min 112 W/m 8,4 km/h (2 Bft) 93,62 %
13.08.2017 19:10 21,2 C 20,6 C 18,9 C 61 % 0 lf 1019,7 hPa 0,0 l/m 2 min 0 min 161 W/m 6,3 km/h (2 Bft) 95,74 %
13.08.2017 19:12 21,2 C 20,6 C 18,9 C 61 % 0 lf 1019,7 hPa 0,0 l/m 2 min 0 min 162 W/m 6,3 km/h (2 Bft) 86,96 %
13.08.2017 19:14 21,1 C 20,6 C 18,9 C 61 % 0 lf 1019,7 hPa 0,0 l/m 2 min 0 min 173 W/m 6,3 km/h (2 Bft) 95,74 %
13.08.2017 19:16 21,1 C 20,6 C 19,4 C 61 % 0 lf 1019,7 hPa 0,0 l/m 2 min 0 min 189 W/m 6,3 km/h (2 Bft) 95,74 %
13.08.2017 19:18 21,1 C 20,6 C 19,4 C 60 % 0 lf 1019,7 hPa 0,0 l/m 2 min 0 min 189 W/m 8,4 km/h (2 Bft) 95,74 %
13.08.2017 19:20 21,0 C 21,1 C 19,4 C 61 % 0 lf 1019,7 hPa 0,0 l/m 2 min 0 min 178 W/m 10,5 km/h (2 Bft) 97,87 %
13.08.2017 19:22 21,0 C 21,1 C 19,4 C 62 % 0 lf 1019,6 hPa 0,0 l/m 2 min 0 min 183 W/m 8,4 km/h (2 Bft) 100,00 %
13.08.2017 19:24 21,0 C 21,1 C 19,4 C 62 % 0 lf 1019,7 hPa 0,0 l/m 2 min 0 min 182 W/m 10,5 km/h (2 Bft) 97,83 %
13.08.2017 19:26 21,0 C 21,1 C 19,4 C 63 % 0 lf 1019,7 hPa 0,0 l/m 2 min 0 min 167 W/m 8,4 km/h (2 Bft) 91,49 %
13.08.2017 19:28 20,9 C 21,1 C 19,4 C 63 % 0 lf 1019,6 hPa 0,0 l/m 2 min 0 min 145 W/m 8,4 km/h (2 Bft) 91,49 %
13.08.2017 19:30 21,0 C 21,1 C 19,4 C 63 % 0 lf 1019,6 hPa 0,0 l/m 2 min 0 min 147 W/m 8,4 km/h (2 Bft) 95,74 %
13.08.2017 19:32 20,9 C 21,1 C 19,4 C 63 % 0 lf 1019,6 hPa 0,0 l/m 2 min 0 min 134 W/m 8,4 km/h (2 Bft) 94,44 %
13.08.2017 19:34 20,9 C 21,1 C 19,4 C 64 % 0 lf 1019,7 hPa 0,0 l/m 2 min 0 min 120 W/m 12,6 km/h (3 Bft) 95,74 %
13.08.2017 19:36 20,9 C 21,1 C 19,4 C 63 % 0 lf 1019,7 hPa 0,0 l/m 2 min 0 min 124 W/m 12,6 km/h (3 Bft) 97,96 %
13.08.2017 19:38 20,9 C 20,6 C 19,4 C 63 % 0 lf 1019,7 hPa 0,0 l/m 2 min 0 min 121 W/m 12,6 km/h (3 Bft) 91,49 %
13.08.2017 19:40 20,9 C 20,6 C 19,4 C 63 % 0 lf 1019,6 hPa 0,0 l/m 2 min 0 min 95 W/m 8,4 km/h (2 Bft) 93,48 %
13.08.2017 19:42 20,9 C 20,6 C 19,4 C 63 % 0 lf 1019,7 hPa 0,0 l/m 0 min 0 min 85 W/m 8,4 km/h (2 Bft) 95,74 %
13.08.2017 19:44 20,9 C 20,6 C 19,4 C 63 % 0 lf 1019,7 hPa 0,0 l/m 0 min 0 min 83 W/m 8,4 km/h (2 Bft) 97,87 %
13.08.2017 19:46 20,9 C 20,6 C 19,4 C 63 % 0 lf 1019,7 hPa 0,0 l/m 0 min 0 min 80 W/m 12,6 km/h (3 Bft) 95,74 %
13.08.2017 19:48 20,8 C 20,6 C 18,9 C 63 % 0 lf 1019,7 hPa 0,0 l/m 2 min 0 min 95 W/m 10,5 km/h (2 Bft) 93,62 %
13.08.2017 19:50 20,8 C 20,6 C 18,9 C 63 % 0 lf 1019,6 hPa 0,0 l/m 2 min 0 min 97 W/m 8,4 km/h (2 Bft) 95,74 %
13.08.2017 19:52 20,8 C 20,6 C 18,9 C 63 % 0 lf 1019,7 hPa 0,0 l/m 2 min 0 min 93 W/m 8,4 km/h (2 Bft) 95,65 %
13.08.2017 19:54 20,8 C 20,6 C 18,9 C 64 % 0 lf 1019,7 hPa 0,0 l/m 2 min 0 min 87 W/m 10,5 km/h (2 Bft) 93,62 %
13.08.2017 19:56 20,8 C 20,0 C 18,9 C 64 % 0 lf 1019,7 hPa 0,0 l/m 2 min 0 min 78 W/m 8,4 km/h (2 Bft) 95,74 %
13.08.2017 19:58 20,8 C 20,0 C 18,9 C 64 % 0 lf 1019,7 hPa 0,0 l/m 2 min 0 min 74 W/m 10,5 km/h (2 Bft) 95,74 %
13.08.2017 20:00 20,8 C 20,0 C 18,9 C 65 % 0 lf 1019,7 hPa 0,0 l/m 2 min 0 min 72 W/m 8,4 km/h (2 Bft) 95,74 %
13.08.2017 20:02 20,7 C 20,0 C 18,3 C 65 % 0 lf 1019,7 hPa 0,0 l/m 2 min 0 min 66 W/m 8,4 km/h (2 Bft) 91,49 %
13.08.2017 20:04 20,7 C 20,0 C 18,3 C 65 % 0 lf 1019,7 hPa 0,0 l/m 0 min 0 min 62 W/m 8,4 km/h (2 Bft) 91,30 %
13.08.2017 20:06 20,7 C 20,0 C 18,3 C 65 % 0 lf 1019,7 hPa 0,0 l/m 0 min 0 min 59 W/m 8,4 km/h (2 Bft) 95,74 %
13.08.2017 20:08 20,7 C 20,0 C 18,3 C 65 % 0 lf 1019,7 hPa 0,0 l/m 0 min 0 min 56 W/m 10,5 km/h (2 Bft) 95,74 %
13.08.2017 20:10 20,6 C 20,0 C 18,3 C 66 % 0 lf 1019,7 hPa 0,0 l/m 0 min 0 min 51 W/m 6,3 km/h (2 Bft) 95,74 %
13.08.2017 20:12 20,6 C 19,4 C 17,8 C 66 % 0 lf 1019,7 hPa 0,0 l/m 0 min 0 min 47 W/m 4,2 km/h (1 Bft) 95,74 %
13.08.2017 20:14 20,6 C 19,4 C 17,8 C 67 % 0 lf 1019,7 hPa 0,0 l/m 0 min 0 min 45 W/m 8,4 km/h (2 Bft) 95,74 %
13.08.2017 20:16 20,6 C 19,4 C 17,8 C 67 % 0 lf 1019,8 hPa 0,0 l/m 0 min 0 min 41 W/m 6,3 km/h (2 Bft) 97,83 %
13.08.2017 20:18 20,6 C 19,4 C 17,8 C 67 % 0 lf 1019,8 hPa 0,0 l/m 0 min 0 min 39 W/m 6,3 km/h (2 Bft) 97,87 %
13.08.2017 20:20 20,5 C 18,9 C 17,2 C 67 % 0 lf 1019,7 hPa 0,0 l/m 0 min 0 min 37 W/m 4,2 km/h (1 Bft) 97,87 %
13.08.2017 20:22 20,5 C 18,9 C 17,2 C 68 % 0 lf 1019,8 hPa 0,0 l/m 0 min 0 min 34 W/m 4,2 km/h (1 Bft) 93,62 %
13.08.2017 20:24 20,5 C 18,9 C 16,7 C 68 % 0 lf 1019,8 hPa 0,0 l/m 0 min 0 min 32 W/m 4,2 km/h (1 Bft) 97,87 %
13.08.2017 20:26 20,4 C 18,9 C 16,7 C 68 % 0 lf 1019,8 hPa 0,0 l/m 0 min 0 min 30 W/m 6,3 km/h (2 Bft) 97,83 %
13.08.2017 20:28 20,4 C 18,9 C 16,7 C 68 % 0 lf 1019,8 hPa 0,0 l/m 0 min 0 min 27 W/m 4,2 km/h (1 Bft) 97,87 %
13.08.2017 20:30 20,4 C 18,9 C 16,7 C 68 % 0 lf 1019,9 hPa 0,0 l/m 0 min 0 min 25 W/m 4,2 km/h (1 Bft) 95,74 %
13.08.2017 20:32 20,3 C 18,3 C 16,1 C 69 % 0 lf 1019,8 hPa 0,0 l/m 0 min 0 min 24 W/m 6,3 km/h (2 Bft) 97,87 %
13.08.2017 20:34 20,3 C 18,3 C 16,1 C 69 % 0 lf 1019,9 hPa 0,0 l/m 0 min 0 min 21 W/m 4,2 km/h (1 Bft) 93,62 %
13.08.2017 20:36 20,3 C 18,3 C 16,1 C 69 % 0 lf 1019,9 hPa 0,0 l/m 2 min 0 min 23 W/m 2,1 km/h (1 Bft) 98,11 %
13.08.2017 20:38 20,2 C 17,8 C 15,6 C 70 % 0 lf 1019,9 hPa 0,0 l/m 2 min 0 min 23 W/m 4,2 km/h (1 Bft) 95,74 %
13.08.2017 20:40 20,2 C 17,8 C 15,6 C 70 % 0 lf 1019,9 hPa 0,0 l/m 2 min 0 min 22 W/m 4,2 km/h (1 Bft) 97,87 %
13.08.2017 20:42 20,1 C 17,8 C 15,6 C 70 % 0 lf 1019,9 hPa 0,0 l/m 2 min 0 min 21 W/m 4,2 km/h (1 Bft) 100,00 %
13.08.2017 20:44 20,1 C 17,2 C 15,6 C 70 % 0 lf 1019,9 hPa 0,0 l/m 0 min 0 min 19 W/m 2,1 km/h (1 Bft) 100,00 %
13.08.2017 20:46 20,0 C 17,2 C 15,6 C 71 % 0 lf 1019,9 hPa 0,0 l/m 0 min 0 min 18 W/m 4,2 km/h (1 Bft) 100,00 %
13.08.2017 20:48 19,9 C 17,2 C 15,0 C 71 % 0 lf 1019,9 hPa 0,0 l/m 0 min 0 min 16 W/m 2,1 km/h (1 Bft) 100,00 %
13.08.2017 20:50 19,9 C 17,2 C 15,0 C 72 % 0 lf 1020,0 hPa 0,0 l/m 0 min 0 min 13 W/m 0,0 km/h (0 Bft) 97,87 %
13.08.2017 20:52 19,8 C 17,2 C 15,0 C 73 % 0 lf 1019,9 hPa 0,0 l/m 0 min 0 min 12 W/m 0,0 km/h (0 Bft) 97,87 %
13.08.2017 20:54 19,7 C 16,7 C 15,0 C 73 % 0 lf 1019,9 hPa 0,0 l/m 0 min 0 min 11 W/m 2,1 km/h (1 Bft) 100,00 %
13.08.2017 20:56 19,6 C 16,7 C 15,0 C 73 % 0 lf 1019,9 hPa 0,0 l/m 0 min 0 min 9 W/m 2,1 km/h (1 Bft) 97,87 %
13.08.2017 20:58 19,6 C 16,7 C 15,0 C 74 % 0 lf 1019,9 hPa 0,0 l/m 0 min 0 min 8 W/m 2,1 km/h (1 Bft) 97,83 %
13.08.2017 21:00 19,4 C 16,7 C 14,4 C 74 % 0 lf 1020,0 hPa 0,0 l/m 0 min 0 min 7 W/m 2,1 km/h (1 Bft) 97,87 %
13.08.2017 21:02 19,4 C 16,1 C 14,4 C 74 % 0 lf 1020,0 hPa 0,0 l/m 0 min 0 min 6 W/m 4,2 km/h (1 Bft) 100,00 %
13.08.2017 21:04 19,3 C 16,1 C 14,4 C 75 % 0 lf 1020,0 hPa 0,0 l/m 0 min 0 min 5 W/m 2,1 km/h (1 Bft) 100,00 %
13.08.2017 21:06 19,2 C 16,1 C 14,4 C 75 % 0 lf 1020,1 hPa 0,0 l/m 0 min 0 min 5 W/m 2,1 km/h (1 Bft) 100,00 %
13.08.2017 21:08 19,2 C 16,1 C 14,4 C 75 % 0 lf 1020,1 hPa 0,0 l/m 0 min 0 min 5 W/m 2,1 km/h (1 Bft) 97,87 %
13.08.2017 21:10 19,1 C 16,1 C 14,4 C 76 % 0 lf 1020,1 hPa 0,0 l/m 0 min 0 min 5 W/m 2,1 km/h (1 Bft) 97,83 %
13.08.2017 21:12 19,0 C 16,1 C 14,4 C 76 % 0 lf 1020,1 hPa 0,0 l/m 0 min 0 min 2 W/m 2,1 km/h (1 Bft) 94,59 %
13.08.2017 21:14 18,9 C 15,6 C 13,9 C 76 % 0 lf 1020,1 hPa 0,0 l/m 0 min 0 min 0 W/m 2,1 km/h (1 Bft) 100,00 %
13.08.2017 21:16 18,9 C 15,6 C 13,9 C 77 % 0 lf 1020,1 hPa 0,0 l/m 0 min 0 min 0 W/m 2,1 km/h (1 Bft) 97,87 %
13.08.2017 21:18 18,8 C 15,6 C 13,9 C 77 % 0 lf 1020,2 hPa 0,0 l/m 0 min 0 min 0 W/m 0,0 km/h (0 Bft) 97,87 %
13.08.2017 21:20 18,7 C 15,6 C 13,9 C 77 % 0 lf 1020,2 hPa 0,0 l/m 0 min 0 min 0 W/m 0,0 km/h (0 Bft) 97,87 %
13.08.2017 21:22 18,6 C 15,6 C 13,9 C 78 % 0 lf 1020,2 hPa 0,0 l/m 0 min 0 min 0 W/m 0,0 km/h (0 Bft) 95,74 %
13.08.2017 21:24 18,6 C 15,6 C 13,9 C 78 % 0 lf 1020,2 hPa 0,0 l/m 0 min 0 min 0 W/m 0,0 km/h (0 Bft) 97,83 %
13.08.2017 21:26 18,4 C 15,6 C 13,9 C 78 % 0 lf 1020,2 hPa 0,0 l/m 0 min 0 min 0 W/m 0,0 km/h (0 Bft) 97,87 %
13.08.2017 21:28 18,4 C 15,6 C 13,9 C 78 % 0 lf 1020,3 hPa 0,0 l/m 0 min 0 min 0 W/m 0,0 km/h (0 Bft) 97,87 %
13.08.2017 21:30 18,3 C 15,0 C 13,9 C 78 % 0 lf 1020,2 hPa 0,0 l/m 0 min 0 min 0 W/m 0,0 km/h (0 Bft) 97,87 %
13.08.2017 21:32 18,3 C 15,0 C 13,9 C 79 % 0 lf 1020,3 hPa 0,0 l/m 0 min 0 min 0 W/m 0,0 km/h (0 Bft) 93,88 %
13.08.2017 21:34 18,2 C 15,0 C 13,9 C 79 % 0 lf 1020,2 hPa 0,0 l/m 0 min 0 min 0 W/m 0,0 km/h (0 Bft) 97,87 %
13.08.2017 21:36 18,2 C 15,0 C 13,9 C 79 % 0 lf 1020,3 hPa 0,0 l/m 0 min 0 min 0 W/m 0,0 km/h (0 Bft) 97,83 %
13.08.2017 21:38 18,1 C 15,0 C 13,9 C 79 % 0 lf 1020,3 hPa 0,0 l/m 0 min 0 min 0 W/m 0,0 km/h (0 Bft) 97,87 %
13.08.2017 21:40 18,0 C 15,0 C 13,3 C 79 % 0 lf 1020,3 hPa 0,0 l/m 0 min 0 min 0 W/m 0,0 km/h (0 Bft) 97,87 %
13.08.2017 21:42 17,9 C 15,0 C 13,3 C 79 % 0 lf 1020,3 hPa 0,0 l/m 0 min 0 min 0 W/m 2,1 km/h (1 Bft) 100,00 %
13.08.2017 21:44 17,9 C 15,0 C 13,3 C 80 % 0 lf 1020,4 hPa 0,0 l/m 0 min 0 min 0 W/m 2,1 km/h (1 Bft) 95,74 %
13.08.2017 21:46 17,8 C 15,0 C 13,3 C 80 % 0 lf 1020,3 hPa 0,0 l/m 0 min 0 min 0 W/m 2,1 km/h (1 Bft) 100,00 %
13.08.2017 21:48 17,7 C 15,0 C 13,3 C 80 % 0 lf 1020,4 hPa 0,0 l/m 0 min 0 min 0 W/m 0,0 km/h (0 Bft) 100,00 %
13.08.2017 21:50 17,7 C 15,0 C 13,3 C 80 % 0 lf 1020,4 hPa 0,0 l/m 0 min 0 min 0 W/m 0,0 km/h (0 Bft) 97,83 %
13.08.2017 21:52 17,6 C 14,4 C 13,3 C 81 % 0 lf 1020,4 hPa 0,0 l/m 0 min 0 min 0 W/m 0,0 km/h (0 Bft) 91,49 %
13.08.2017 21:54 17,6 C 14,4 C 13,3 C 81 % 0 lf 1020,5 hPa 0,0 l/m 0 min 0 min 0 W/m 0,0 km/h (0 Bft) 97,87 %
13.08.2017 21:56 17,5 C 14,4 C 13,3 C 81 % 0 lf 1020,4 hPa 0,0 l/m 0 min 0 min 0 W/m 0,0 km/h (0 Bft) 97,87 %
13.08.2017 21:58 17,4 C 14,4 C 13,3 C 81 % 0 lf 1020,4 hPa 0,0 l/m 0 min 0 min 0 W/m 0,0 km/h (0 Bft) 97,87 %
13.08.2017 22:00 17,3 C 14,4 C 13,3 C 81 % 0 lf 1020,5 hPa 0,0 l/m 0 min 0 min 0 W/m 0,0 km/h (0 Bft) 97,83 %
13.08.2017 22:02 17,3 C 14,4 C 13,3 C 82 % 0 lf 1020,4 hPa 0,0 l/m 0 min 0 min 0 W/m 0,0 km/h (0 Bft) 94,44 %
13.08.2017 22:04 17,2 C 14,4 C 13,3 C 82 % 0 lf 1020,5 hPa 0,0 l/m 0 min 0 min 0 W/m 0,0 km/h (0 Bft) 97,87 %
13.08.2017 22:06 17,2 C 14,4 C 13,3 C 82 % 0 lf 1020,5 hPa 0,0 l/m 0 min 0 min 0 W/m 0,0 km/h (0 Bft) 97,87 %
13.08.2017 22:08 17,1 C 14,4 C 13,3 C 82 % 0 lf 1020,4 hPa 0,0 l/m 0 min 0 min 0 W/m 0,0 km/h (0 Bft) 95,65 %
13.08.2017 22:10 17,1 C 14,4 C 13,3 C 82 % 0 lf 1020,5 hPa 0,0 l/m 0 min 0 min 0 W/m 0,0 km/h (0 Bft) 97,87 %
13.08.2017 22:12 17,0 C 14,4 C 13,3 C 83 % 0 lf 1020,4 hPa 0,0 l/m 0 min 0 min 0 W/m 0,0 km/h (0 Bft) 95,74 %
13.08.2017 22:14 16,9 C 14,4 C 13,3 C 83 % 0 lf 1020,4 hPa 0,0 l/m 0 min 0 min 0 W/m 0,0 km/h (0 Bft) 95,74 %
13.08.2017 22:16 16,9 C 14,4 C 13,3 C 83 % 0 lf 1020,4 hPa 0,0 l/m 0 min 0 min 0 W/m 0,0 km/h (0 Bft) 95,74 %
13.08.2017 22:18 16,8 C 13,9 C 12,8 C 83 % 0 lf 1020,5 hPa 0,0 l/m 0 min 0 min 0 W/m 0,0 km/h (0 Bft) 97,87 %
13.08.2017 22:20 16,8 C 13,9 C 12,8 C 83 % 0 lf 1020,5 hPa 0,0 l/m 0 min 0 min 0 W/m 0,0 km/h (0 Bft) 93,48 %
13.08.2017 22:22 16,7 C 13,9 C 12,8 C 83 % 0 lf 1020,5 hPa 0,0 l/m 0 min 0 min 0 W/m 0,0 km/h (0 Bft) 95,74 %
13.08.2017 22:24 16,7 C 13,9 C 12,8 C 84 % 0 lf 1020,5 hPa 0,0 l/m 0 min 0 min 0 W/m 2,1 km/h (1 Bft) 93,62 %
13.08.2017 22:26 16,6 C 13,9 C 12,8 C 84 % 0 lf 1020,5 hPa 0,0 l/m 0 min 0 min 0 W/m 4,2 km/h (1 Bft) 93,62 %
13.08.2017 22:28 16,6 C 13,9 C 12,8 C 84 % 0 lf 1020,5 hPa 0,0 l/m 0 min 0 min 0 W/m 4,2 km/h (1 Bft) 95,74 %
13.08.2017 22:30 16,5 C 13,9 C 12,8 C 84 % 0 lf 1020,6 hPa 0,0 l/m 0 min 0 min 0 W/m 2,1 km/h (1 Bft) 93,62 %
13.08.2017 22:32 16,4 C 13,9 C 12,8 C 84 % 0 lf 1020,6 hPa 0,0 l/m 0 min 0 min 0 W/m 2,1 km/h (1 Bft) 93,62 %
13.08.2017 22:34 16,4 C 13,9 C 12,8 C 84 % 0 lf 1020,5 hPa 0,0 l/m 0 min 0 min 0 W/m 4,2 km/h (1 Bft) 91,49 %
13.08.2017 22:36 16,4 C 13,9 C 12,8 C 84 % 0 lf 1020,5 hPa 0,0 l/m 0 min 0 min 0 W/m 4,2 km/h (1 Bft) 93,62 %
13.08.2017 22:38 16,3 C 13,9 C 12,8 C 85 % 0 lf 1020,5 hPa 0,0 l/m 0 min 0 min 0 W/m 4,2 km/h (1 Bft) 91,49 %
13.08.2017 22:40 16,3 C 13,9 C 12,8 C 85 % 0 lf 1020,5 hPa 0,0 l/m 0 min 0 min 0 W/m 4,2 km/h (1 Bft) 95,74 %
13.08.2017 22:42 16,2 C 14,4 C 12,8 C 85 % 0 lf 1020,6 hPa 0,0 l/m 0 min 0 min 0 W/m 2,1 km/h (1 Bft) 91,49 %
13.08.2017 22:44 16,2 C 14,4 C 12,8 C 85 % 0 lf 1020,6 hPa 0,0 l/m 0 min 0 min 0 W/m 2,1 km/h (1 Bft) 93,62 %
13.08.2017 22:46 16,2 C 13,9 C 12,8 C 85 % 0 lf 1020,6 hPa 0,0 l/m 0 min 0 min 0 W/m 0,0 km/h (0 Bft) 93,62 %
13.08.2017 22:48 16,1 C 13,9 C 12,8 C 85 % 0 lf 1020,6 hPa 0,0 l/m 0 min 0 min 0 W/m 0,0 km/h (0 Bft) 93,62 %
13.08.2017 22:50 16,1 C 13,9 C 12,8 C 85 % 0 lf 1020,6 hPa 0,0 l/m 0 min 0 min 0 W/m 0,0 km/h (0 Bft) 93,62 %
13.08.2017 22:52 16,0 C 13,9 C 12,8 C 85 % 0 lf 1020,7 hPa 0,0 l/m 0 min 0 min 0 W/m 0,0 km/h (0 Bft) 93,62 %
13.08.2017 22:54 16,0 C 13,9 C 12,8 C 85 % 0 lf 1020,6 hPa 0,0 l/m 0 min 0 min 0 W/m 0,0 km/h (0 Bft) 89,13 %
13.08.2017 22:56 15,9 C 13,9 C 12,8 C 85 % 0 lf 1020,7 hPa 0,0 l/m 0 min 0 min 0 W/m 2,1 km/h (1 Bft) 89,36 %
13.08.2017 22:58 15,9 C 13,9 C 12,8 C 85 % 0 lf 1020,7 hPa 0,0 l/m 0 min 0 min 0 W/m 4,2 km/h (1 Bft) 93,62 %
13.08.2017 23:00 15,9 C 13,3 C 12,8 C 86 % 0 lf 1020,7 hPa 0,0 l/m 0 min 0 min 0 W/m 4,2 km/h (1 Bft) 93,62 %
13.08.2017 23:02 15,8 C 13,3 C 12,8 C 86 % 1 lf 1020,7 hPa 0,0 l/m 0 min 0 min 0 W/m 2,1 km/h (1 Bft) 91,67 %
13.08.2017 23:04 15,8 C 13,3 C 12,8 C 86 % 0 lf 1020,7 hPa 0,0 l/m 0 min 0 min 0 W/m 0,0 km/h (0 Bft) 91,49 %
13.08.2017 23:06 15,7 C 13,3 C 12,8 C 86 % 0 lf 1020,7 hPa 0,0 l/m 0 min 0 min 2 W/m 0,0 km/h (0 Bft) 93,88 %
13.08.2017 23:08 15,7 C 13,3 C 12,2 C 86 % 1 lf 1020,7 hPa 0,0 l/m 0 min 0 min 0 W/m 0,0 km/h (0 Bft) 89,36 %
13.08.2017 23:10 15,7 C 13,3 C 12,2 C 86 % 1 lf 1020,7 hPa 0,0 l/m 0 min 0 min 0 W/m 0,0 km/h (0 Bft) 93,62 %
13.08.2017 23:12 15,6 C 13,3 C 12,2 C 86 % 1 lf 1020,7 hPa 0,0 l/m 0 min 0 min 0 W/m 0,0 km/h (0 Bft) 91,30 %
13.08.2017 23:14 15,6 C 13,3 C 12,2 C 86 % 0 lf 1020,7 hPa 0,0 l/m 0 min 0 min 0 W/m 2,1 km/h (1 Bft) 93,62 %
13.08.2017 23:16 15,6 C 13,3 C 12,2 C 87 % 0 lf 1020,7 hPa 0,0 l/m 0 min 0 min 5 W/m 2,1 km/h (1 Bft) 95,74 %
13.08.2017 23:18 15,5 C 13,3 C 12,2 C 87 % 0 lf 1020,7 hPa 0,0 l/m 0 min 0 min 3 W/m 4,2 km/h (1 Bft) 95,74 %
13.08.2017 23:20 15,5 C 13,3 C 12,2 C 87 % 0 lf 1020,7 hPa 0,0 l/m 0 min 0 min 5 W/m 2,1 km/h (1 Bft) 95,74 %
13.08.2017 23:22 15,4 C 13,3 C 12,2 C 87 % 0 lf 1020,7 hPa 0,0 l/m 0 min 0 min 5 W/m 2,1 km/h (1 Bft) 91,30 %
13.08.2017 23:24 15,4 C 13,3 C 12,2 C 87 % 0 lf 1020,7 hPa 0,0 l/m 0 min 0 min 5 W/m 4,2 km/h (1 Bft) 93,62 %
13.08.2017 23:26 15,4 C 13,3 C 12,2 C 87 % 0 lf 1020,7 hPa 0,0 l/m 0 min 0 min 0 W/m 2,1 km/h (1 Bft) 93,62 %
13.08.2017 23:28 15,3 C 13,3 C 12,2 C 87 % 1 lf 1020,7 hPa 0,0 l/m 0 min 0 min 0 W/m 0,0 km/h (0 Bft) 95,74 %
13.08.2017 23:30 15,3 C 13,3 C 12,2 C 87 % 1 lf 1020,7 hPa 0,0 l/m 0 min 0 min 5 W/m 0,0 km/h (0 Bft) 97,87 %
13.08.2017 23:32 15,3 C 13,3 C 12,2 C 87 % 1 lf 1020,7 hPa 0,0 l/m 0 min 0 min 0 W/m 0,0 km/h (0 Bft) 97,87 %
13.08.2017 23:34 15,3 C 13,3 C 12,2 C 87 % 1 lf 1020,8 hPa 0,0 l/m 0 min 0 min 0 W/m 0,0 km/h (0 Bft) 100,00 %
13.08.2017 23:36 15,2 C 12,8 C 12,2 C 87 % 1 lf 1020,8 hPa 0,0 l/m 0 min 0 min 0 W/m 0,0 km/h (0 Bft) 97,87 %
13.08.2017 23:38 15,2 C 12,8 C 12,2 C 87 % 1 lf 1020,7 hPa 0,0 l/m 0 min 0 min 1 W/m 0,0 km/h (0 Bft) 100,00 %
13.08.2017 23:40 15,2 C 12,8 C 12,2 C 88 % 1 lf 1020,8 hPa 0,0 l/m 0 min 0 min 5 W/m 0,0 km/h (0 Bft) 100,00 %
13.08.2017 23:42 15,1 C 12,8 C 12,2 C 88 % 1 lf 1020,8 hPa 0,0 l/m 0 min 0 min 0 W/m 0,0 km/h (0 Bft) 97,87 %
13.08.2017 23:44 15,1 C 12,8 C 12,2 C 88 % 1 lf 1020,8 hPa 0,0 l/m 0 min 0 min 5 W/m 0,0 km/h (0 Bft) 100,00 %
13.08.2017 23:46 15,1 C 12,8 C 12,2 C 88 % 1 lf 1020,8 hPa 0,0 l/m 0 min 0 min 0 W/m 0,0 km/h (0 Bft) 100,00 %
13.08.2017 23:48 15,1 C 12,8 C 12,2 C 88 % 1 lf 1020,8 hPa 0,0 l/m 0 min 0 min 4 W/m 0,0 km/h (0 Bft) 100,00 %
13.08.2017 23:50 15,0 C 12,8 C 12,2 C 88 % 1 lf 1020,8 hPa 0,0 l/m 0 min 0 min 3 W/m 0,0 km/h (0 Bft) 100,00 %
13.08.2017 23:52 14,9 C 12,8 C 12,2 C 88 % 1 lf 1020,8 hPa 0,0 l/m 0 min 0 min 5 W/m 0,0 km/h (0 Bft) 97,87 %
13.08.2017 23:54 14,9 C 12,8 C 12,2 C 88 % 1 lf 1020,8 hPa 0,0 l/m 0 min 0 min 0 W/m 0,0 km/h (0 Bft) 100,00 %
13.08.2017 23:56 14,9 C 12,8 C 12,2 C 88 % 1 lf 1020,9 hPa 0,0 l/m 0 min 0 min 0 W/m 0,0 km/h (0 Bft) 100,00 %
13.08.2017 23:58 14,9 C 12,8 C 12,2 C 88 % 1 lf 1020,8 hPa 0,0 l/m 0 min 0 min 0 W/m 0,0 km/h (0 Bft) 100,00 %
_ Min-Zeit 23:52 23:36 23:08 19:18 09:40 00:14 - - - - 01:04 19:12
Minimum _ 14,9 C 12,8 C 12,2 C 60 % 0 lf 1015,9 hPa - - - - 0,0 km/h (0 Bft) 86,96 %
_ Max-Zeit 15:06 13:26 14:58 05:04 00:00 23:56 03:12 12:10 02:44 15:04 16:06 00:00
Maximum _ 23,5 C 34,4 C 31,7 C 99 % 15 lf 1020,9 hPa 0,2 l/m 4 min 2 min 956 W/m 29,3 km/h
N (5 Bft)
100,00 %
Durchschnitt _ 18,4 C 19,4 C 17,6 C 85 % 6 lf 1018,6 hPa #0,2 l/m #7:30 h #24 min. 260 W/m 8,6 km/h (2 Bft) 96,33 %
© 2017 W. Hausmann